GFSMW_prec_kuchsnow_105.txt.gz
Snowfall_Accumulation
0.0 0.0 0.0 0.0 0.0 0.0 0.0 0.0 0.0 0.0 0.0 0.0 0.0 0.0 0.0 0.0 0.0 0.0 0.0 0.0 0.0 0.0 0.0 0.0 0.0 0.0 0.0 0.0 0.0 0.0 0.0 0.0 0.0 0.0 0.0 0.0 0.0 0.0 0.0 0.0 0.0 0.0 0.0
0.0 0.0 0.0 0.0 0.0 0.0 0.0 0.0 0.0 0.0 0.0 0.0 0.0 0.0 0.0 0.0 0.0 0.0 0.0 0.0 0.0 0.0 0.0 0.0 0.0 0.0 0.0 0.0 0.0 0.0 0.0 0.0 0.0 0.0 0.0 0.0 0.0 0.0 0.0 0.0 0.0 0.0 0.0
0.0 0.0 0.0 0.0 0.0 0.0 0.0 0.0 0.0 0.0 0.0 0.0 0.0 0.0 0.0 0.0 0.0 0.0 0.0 0.0 0.0 0.0 0.0 0.0 0.0 0.0 0.0 0.0 0.0 0.0 0.0 0.0 0.0 0.0 0.0 0.0 0.0 0.0 0.0 0.0 0.0 0.0 0.0
0.0 0.0 0.0 0.0 0.0 0.0 0.0 0.0 0.0 0.0 0.0 0.0 0.0 0.0 0.0 0.0 0.0 0.0 0.0 0.0 0.0 0.0 0.0 0.0 0.0 0.0 0.0 0.0 0.0 0.0 0.0 0.0 0.0 0.0 0.0 0.0 0.0 0.0 0.0 0.0 0.0 0.0 0.0
0.0 0.0 0.0 0.0 0.0 0.0 0.0 0.0 0.0 0.0 0.0 0.0 0.0 0.0 0.0 0.0 0.0 0.0 0.0 0.0 0.0 0.0 0.0 0.0 0.0 0.0 0.0 0.0 0.0 0.0 0.0 0.0 0.0 0.0 0.0 0.0 0.0 0.0 0.0 0.0 0.0 0.0 0.0
0.0 0.0 0.0 0.0 0.0 0.0 0.0 0.0 0.0 0.0 0.0 0.0 0.0 0.0 0.0 0.0 0.0 0.0 0.0 0.0 0.0 0.0 0.0 0.0 0.0 0.0 0.0 0.0 0.0 0.0 0.0 0.0 0.0 0.0 0.0 0.0 0.0 0.0 0.0 0.0 0.0 0.0 0.0
0.0 0.0 0.0 0.0 0.0 0.0 0.0 0.0 0.0 0.0 0.0 0.0 0.0 0.0 0.0 0.0 0.0 0.0 0.0 0.0 0.0 0.0 0.0 0.0 0.0 0.0 0.0 0.0 0.0 0.0 0.0 0.0 0.0 0.0 0.0 0.0 0.0 0.0 0.0 0.0 0.0 0.0 0.0
0.0 0.0 0.0 0.0 0.0 0.0 0.0 0.0 0.0 0.0 0.0 0.0 0.0 0.0 0.0 0.0 0.0 0.0 0.0 0.0 0.0 0.0 0.0 0.0 0.0 0.0 0.0 0.0 0.0 0.0 0.0 0.0 0.0 0.0 0.0 0.0 0.0 0.0 0.0 0.0 0.0 0.0 0.0
0.0 0.0 0.0 0.0 0.0 0.0 0.0 0.0 0.0 0.0 0.0 0.0 0.0 0.0 0.0 0.0 0.0 0.0 0.0 0.0 0.0 0.0 0.0 0.0 0.0 0.0 0.0 0.0 0.0 0.0 0.0 0.0 0.0 0.0 0.0 0.0 0.0 0.0 0.0 0.0 0.0 0.0 0.0
0.0 0.0 0.0 0.0 0.0 0.0 0.0 0.0 0.0 0.0 0.0 0.0 0.0 0.0 0.0 0.0 0.0 0.0 0.0 0.0 0.0 0.0 0.0 0.0 0.0 0.0 0.0 0.0 0.0 0.0 0.0 0.0 0.0 0.0 0.0 0.0 0.0 0.0 0.0 0.0 0.0 0.0 0.0
0.0 0.0 0.0 0.0 0.0 0.0 0.0 0.0 0.0 0.0 0.0 0.0 0.0 0.0 0.0 0.0 0.0 0.0 0.0 0.0 0.0 0.0 0.0 0.0 0.0 0.0 0.0 0.0 0.0 0.0 0.0 0.0 0.0 0.0 0.0 0.0 0.0 0.0 0.0 0.0 0.0 0.0 0.0
0.0 0.0 0.0 0.0 0.0 0.0 0.0 0.0 0.0 0.0 0.0 0.0 0.0 0.0 0.0 0.0 0.0 0.0 0.0 0.0 0.0 0.0 0.0 0.0 0.0 0.0 0.0 0.0 0.0 0.0 0.0 0.0 0.0 0.0 0.0 0.0 0.0 0.0 0.0 0.0 0.0 0.0 0.0
0.0 0.0 0.0 0.0 0.0 0.0 0.0 0.0 0.0 0.0 0.0 0.0 0.0 0.0 0.0 0.0 0.0 0.0 0.0 0.0 0.0 0.0 0.0 0.0 0.0 0.0 0.0 0.0 0.0 0.0 0.0 0.0 0.0 0.0 0.0 0.0 0.0 0.0 0.0 0.0 0.0 0.0 0.0
0.0 0.0 0.0 0.0 0.0 0.0 0.0 0.0 0.0 0.0 0.0 0.0 0.0 0.0 0.0 0.0 0.0 0.0 0.0 0.0 0.0 0.0 0.0 0.0 0.0 0.0 0.0 0.0 0.0 0.0 0.0 0.0 0.0 0.0 0.0 0.0 0.0 0.0 0.0 0.0 0.1 0.0 0.1
0.0 0.0 0.0 0.0 0.0 0.0 0.0 0.0 0.0 0.0 0.0 0.0 0.0 0.0 0.0 0.0 0.0 0.0 0.0 0.0 0.0 0.0 0.0 0.0 0.0 0.0 0.0 0.0 0.0 0.0 0.0 0.0 0.0 0.0 0.0 0.0 0.0 0.0 0.0 0.0 0.0 0.0 0.1
0.0 0.0 0.0 0.0 0.0 0.0 0.0 0.1 0.0 0.1 0.0 0.1 0.0 0.0 0.0 0.0 0.0 0.0 0.0 0.0 0.0 0.0 0.0 0.0 0.0 0.0 0.0 0.0 0.0 0.0 0.0 0.0 0.0 0.0 0.0 0.0 0.0 0.0 0.0 0.0 0.0 0.0 0.1
0.1 0.0 0.3 0.0 0.1 0.1 0.1 0.3 0.4 0.2 0.0 0.2 0.1 0.2 0.9 0.0 0.0 0.0 0.0 0.0 0.0 0.0 0.0 0.0 0.0 0.0 0.0 0.0 0.0 0.0 0.0 0.0 0.0 0.0 0.0 0.0 0.0 0.0 0.0 0.0 0.0 0.0 0.1
1.7 1.3 1.1 1.0 0.7 0.3 0.3 0.1 0.4 0.4 0.2 0.3 0.4 0.5 0.6 1.1 1.1 0.8 0.0 0.0 0.0 0.0 0.0 0.0 0.0 0.0 0.0 0.0 0.0 0.0 0.0 0.0 0.0 0.0 0.0 0.0 0.0 0.0 0.0 0.1 0.1 0.1 0.0
3.2 5.7 1.6 1.2 1.6 1.1 1.3 1.2 0.6 0.6 0.5 1.1 0.9 1.0 1.1 0.4 0.4 0.1 0.0 0.0 0.4 0.0 0.0 0.0 0.0 0.0 0.0 0.0 0.0 0.0 0.0 0.0 0.0 0.0 0.0 0.0 0.0 0.0 0.1 0.1 0.1 0.0 0.0
3.8 3.0 5.9 5.2 3.5 3.3 2.4 1.8 1.3 2.0 3.3 3.8 4.3 1.5 0.8 1.1 2.4 1.3 2.6 3.9 1.4 1.6 1.8 3.3 0.0 0.0 0.0 0.0 0.0 0.0 0.0 0.0 0.0 0.0 0.0 0.0 0.0 0.2 0.1 0.0 0.1 0.2 0.2
3.2 2.9 2.1 3.4 5.0 4.7 5.5 5.7 4.0 4.6 3.8 4.4 4.2 3.7 4.0 5.6 5.9 5.9 6.2 9.2 10.6 8.0 3.5 4.0 4.1 3.5 0.0 0.0 0.0 0.0 0.0 0.0 0.0 0.0 0.0 0.0 0.2 0.2 0.1 0.0 0.0 1.7 0.5
1.9 1.3 1.9 1.5 1.1 1.0 1.1 5.1 7.9 6.9 5.9 5.1 4.8 5.7 5.5 5.8 6.6 6.8 8.3 8.3 9.6 12.7 14.3 13.1 10.8 9.8 8.3 5.9 3.3 1.5 1.2 0.0 0.0 0.0 0.1 0.3 0.5 0.1 0.9 0.7 0.5 1.9 1.8
0.8 0.4 0.7 0.4 0.2 0.1 0.0 0.7 2.3 3.2 4.2 5.2 6.7 6.3 6.2 6.4 5.9 6.3 7.0 7.6 8.7 8.5 8.4 9.3 10.6 11.9 11.1 11.1 10.0 9.6 8.3 6.8 5.0 4.7 4.0 3.8 2.9 1.9 2.5 2.8 4.4 6.2 3.0
1.5 0.5 0.1 0.0 0.4 0.5 0.6 0.1 0.0 0.1 0.6 1.1 1.4 2.6 3.2 3.5 3.6 3.7 4.0 4.4 5.8 6.9 7.9 8.2 7.9 7.9 7.3 7.3 6.8 6.8 6.6 6.4 6.9 7.2 8.3 7.9 9.5 10.5 8.8 15.0 15.6 10.8 16.3
3.5 1.2 0.7 0.6 1.1 0.5 0.4 0.6 0.4 0.1 0.1 0.2 0.7 1.0 1.3 1.6 1.9 2.3 2.2 2.3 3.7 3.1 3.2 4.7 4.5 4.9 7.2 9.0 7.1 6.9 9.2 9.3 10.2 14.8 19.8 21.9 21.7 22.5 23.5 22.0 21.2 19.4 17.4
2.9 1.9 2.0 1.3 1.0 0.1 0.5 0.5 0.3 0.0 0.0 0.0 0.6 0.2 0.7 0.5 0.8 1.0 1.6 1.7 2.0 1.8 1.2 1.3 4.6 6.2 10.2 13.3 12.7 13.1 13.6 15.1 15.5 17.0 17.7 18.0 16.8 16.5 15.2 13.8 12.6 10.9 9.9

GFSMW_prec_kuchsnow_108.txt.gz
Snowfall_Accumulation
0.0 0.0 0.0 0.0 0.0 0.0 0.0 0.0 0.0 0.0 0.0 0.0 0.0 0.0 0.0 0.0 0.0 0.0 0.0 0.0 0.0 0.0 0.0 0.0 0.0 0.0 0.0 0.0 0.0 0.0 0.0 0.0 0.0 0.0 0.0 0.0 0.0 0.0 0.0 0.0 0.0 0.0 0.0
0.0 0.0 0.0 0.0 0.0 0.0 0.0 0.0 0.0 0.0 0.0 0.0 0.0 0.0 0.0 0.0 0.0 0.0 0.0 0.0 0.0 0.0 0.0 0.0 0.0 0.0 0.0 0.0 0.0 0.0 0.0 0.0 0.0 0.0 0.0 0.0 0.0 0.0 0.0 0.0 0.0 0.0 0.0
0.0 0.0 0.0 0.0 0.0 0.0 0.0 0.0 0.0 0.0 0.0 0.0 0.0 0.0 0.0 0.0 0.0 0.0 0.0 0.0 0.0 0.0 0.0 0.0 0.0 0.0 0.0 0.0 0.0 0.0 0.0 0.0 0.0 0.0 0.0 0.0 0.0 0.0 0.0 0.0 0.0 0.0 0.0
0.0 0.0 0.0 0.0 0.0 0.0 0.0 0.0 0.0 0.0 0.0 0.0 0.0 0.0 0.0 0.0 0.0 0.0 0.0 0.0 0.0 0.0 0.0 0.0 0.0 0.0 0.0 0.0 0.0 0.0 0.0 0.0 0.0 0.0 0.0 0.0 0.0 0.0 0.0 0.0 0.0 0.0 0.0
0.0 0.0 0.0 0.0 0.0 0.0 0.0 0.0 0.0 0.0 0.0 0.0 0.0 0.0 0.0 0.0 0.0 0.0 0.0 0.0 0.0 0.0 0.0 0.0 0.0 0.0 0.0 0.0 0.0 0.0 0.0 0.0 0.0 0.0 0.0 0.0 0.0 0.0 0.0 0.0 0.0 0.0 0.0
0.0 0.0 0.0 0.0 0.0 0.0 0.0 0.0 0.0 0.0 0.0 0.0 0.0 0.0 0.0 0.0 0.0 0.0 0.0 0.0 0.0 0.0 0.0 0.0 0.0 0.0 0.0 0.0 0.0 0.0 0.0 0.0 0.0 0.0 0.0 0.0 0.0 0.0 0.0 0.0 0.0 0.0 0.0
0.0 0.0 0.0 0.0 0.0 0.0 0.0 0.0 0.0 0.0 0.0 0.0 0.0 0.0 0.0 0.0 0.0 0.0 0.0 0.0 0.0 0.0 0.0 0.0 0.0 0.0 0.0 0.0 0.0 0.0 0.0 0.0 0.0 0.0 0.0 0.0 0.0 0.0 0.0 0.0 0.0 0.0 0.0
0.0 0.0 0.0 0.0 0.0 0.0 0.0 0.0 0.0 0.0 0.0 0.0 0.0 0.0 0.0 0.0 0.0 0.0 0.0 0.0 0.0 0.0 0.0 0.0 0.0 0.0 0.0 0.0 0.0 0.0 0.0 0.0 0.0 0.0 0.0 0.0 0.0 0.0 0.0 0.0 0.0 0.0 0.0
0.0 0.0 0.0 0.0 0.0 0.0 0.0 0.0 0.0 0.0 0.0 0.0 0.0 0.0 0.0 0.0 0.0 0.0 0.0 0.0 0.0 0.0 0.0 0.0 0.0 0.0 0.0 0.0 0.0 0.0 0.0 0.0 0.0 0.0 0.0 0.0 0.0 0.0 0.0 0.0 0.0 0.0 0.0
0.0 0.0 0.0 0.0 0.0 0.0 0.0 0.0 0.0 0.0 0.0 0.0 0.0 0.0 0.0 0.0 0.0 0.0 0.0 0.0 0.0 0.0 0.0 0.0 0.0 0.0 0.0 0.0 0.0 0.0 0.0 0.0 0.0 0.0 0.0 0.0 0.0 0.0 0.0 0.0 0.0 0.0 0.0
0.0 0.0 0.0 0.0 0.0 0.0 0.0 0.0 0.0 0.0 0.0 0.0 0.0 0.0 0.0 0.0 0.0 0.0 0.0 0.0 0.0 0.0 0.0 0.0 0.0 0.0 0.0 0.0 0.0 0.0 0.0 0.0 0.0 0.0 0.0 0.0 0.0 0.0 0.0 0.0 0.0 0.0 0.0
0.0 0.0 0.0 0.0 0.0 0.0 0.0 0.0 0.0 0.0 0.0 0.0 0.0 0.0 0.0 0.0 0.0 0.0 0.0 0.0 0.0 0.0 0.0 0.0 0.0 0.0 0.0 0.0 0.0 0.0 0.0 0.0 0.0 0.0 0.0 0.0 0.0 0.0 0.0 0.0 0.0 0.0 0.0
0.0 0.0 0.0 0.0 0.0 0.0 0.0 0.0 0.0 0.0 0.0 0.0 0.0 0.0 0.0 0.0 0.0 0.0 0.0 0.0 0.0 0.0 0.0 0.0 0.0 0.0 0.0 0.0 0.0 0.0 0.0 0.0 0.0 0.0 0.0 0.0 0.0 0.0 0.0 0.0 0.0 0.0 0.0
0.0 0.0 0.0 0.0 0.0 0.0 0.0 0.0 0.0 0.0 0.0 0.0 0.0 0.0 0.0 0.0 0.0 0.0 0.0 0.0 0.0 0.0 0.0 0.0 0.0 0.0 0.0 0.0 0.0 0.0 0.0 0.0 0.0 0.0 0.0 0.0 0.0 0.0 0.0 0.0 0.1 0.0 0.1
0.0 0.0 0.0 0.0 0.0 0.0 0.0 0.0 0.0 0.0 0.0 0.0 0.0 0.0 0.0 0.0 0.0 0.0 0.0 0.0 0.0 0.0 0.0 0.0 0.0 0.0 0.0 0.0 0.0 0.0 0.0 0.0 0.0 0.0 0.0 0.0 0.0 0.0 0.0 0.0 0.0 0.0 0.1
0.0 0.0 0.0 0.0 0.0 0.0 0.0 0.1 0.0 0.1 0.0 0.1 0.0 0.0 0.0 0.0 0.0 0.0 0.0 0.0 0.0 0.0 0.0 0.0 0.0 0.0 0.0 0.0 0.0 0.0 0.0 0.0 0.0 0.0 0.0 0.0 0.0 0.0 0.0 0.0 0.0 0.0 0.1
0.1 0.0 0.3 0.0 0.1 0.1 0.2 0.3 0.4 0.2 0.0 0.2 0.1 0.2 0.9 0.0 0.5 0.7 0.0 0.0 0.0 0.0 0.0 0.0 0.0 0.0 0.0 0.0 0.0 0.0 0.0 0.0 0.0 0.0 0.0 0.0 0.0 0.0 0.0 0.0 0.0 0.0 0.1
1.7 1.3 1.1 1.0 0.8 0.3 0.4 0.1 0.4 0.4 0.3 0.4 0.4 0.7 0.8 1.4 1.6 1.7 0.9 0.6 0.3 0.0 0.0 0.0 0.0 0.0 0.0 0.0 0.0 0.0 0.0 0.0 0.0 0.0 0.0 0.0 0.0 0.0 0.0 0.1 0.1 0.1 0.0
3.4 6.0 1.8 1.4 1.8 1.3 1.4 1.3 0.6 0.6 0.5 1.3 1.1 1.4 1.6 1.0 0.8 0.6 0.4 0.4 0.5 0.2 0.8 0.0 0.0 0.0 0.0 0.0 0.0 0.0 0.0 0.0 0.0 0.0 0.0 0.0 0.0 0.0 0.1 0.1 0.1 0.0 0.0
4.1 3.3 6.3 5.7 4.0 3.8 2.6 1.8 1.3 2.0 3.3 3.8 4.6 1.9 1.2 1.5 2.9 1.8 3.0 4.1 1.6 2.2 2.7 5.0 2.3 3.1 0.0 0.0 0.0 0.0 0.0 0.0 0.0 0.0 0.0 0.0 0.0 0.2 0.1 0.0 0.1 0.2 0.2
3.5 3.3 2.6 4.1 5.5 5.0 5.6 5.7 4.0 4.6 3.8 4.4 4.2 3.7 4.0 5.6 6.0 6.0 6.4 9.5 11.0 8.5 4.4 5.2 6.0 6.2 3.9 5.4 4.6 0.0 1.8 0.0 0.0 0.0 0.0 0.0 0.2 0.2 0.1 0.0 0.0 1.7 0.5
2.4 1.6 2.3 1.8 1.2 1.0 1.1 5.1 7.9 6.9 5.9 5.1 4.8 5.7 5.5 5.8 6.6 6.8 8.3 8.3 9.6 13.1 15.0 14.4 12.9 12.8 12.1 9.5 7.2 5.7 4.7 2.2 1.1 0.0 0.1 0.3 0.5 0.1 0.9 0.7 0.5 1.9 1.8
1.2 0.6 0.7 0.4 0.2 0.1 0.0 0.7 2.3 3.2 4.2 5.2 6.7 6.3 6.2 6.4 5.9 6.3 7.0 7.6 8.7 8.5 8.4 9.3 12.0 14.0 13.8 14.5 13.1 12.5 11.2 9.6 8.0 7.2 5.9 4.9 2.9 1.9 2.5 2.8 4.4 6.2 3.0
1.5 0.5 0.1 0.0 0.4 0.5 0.6 0.1 0.0 0.1 0.6 1.1 1.4 2.6 3.2 3.5 3.6 3.7 4.0 4.4 5.8 6.9 7.9 8.2 7.9 7.9 7.3 8.8 8.8 8.9 8.6 8.6 9.2 9.4 10.5 10.0 11.5 12.3 10.5 16.4 16.5 11.5 16.8
3.5 1.2 0.7 0.6 1.1 0.5 0.4 0.6 0.4 0.1 0.1 0.2 0.7 1.0 1.3 1.6 1.9 2.3 2.2 2.3 3.7 3.1 3.2 4.7 4.5 4.9 7.2 9.3 7.1 7.6 10.1 10.2 11.2 15.9 20.9 23.0 22.9 23.9 25.0 23.5 22.8 20.9 18.8
2.9 1.9 2.0 1.3 1.0 0.1 0.5 0.5 0.3 0.0 0.0 0.0 0.6 0.2 0.7 0.5 0.8 1.0 1.6 1.7 2.0 1.8 1.2 1.3 4.6 6.2 10.2 13.3 12.7 13.1 13.6 15.1 15.5 17.0 18.3 18.8 17.5 17.2 15.9 14.7 13.7 12.1 11.0

GFSMW_prec_kuchsnow_111.txt.gz
Snowfall_Accumulation
0.0 0.0 0.0 0.0 0.0 0.0 0.0 0.0 0.0 0.0 0.0 0.0 0.0 0.0 0.0 0.0 0.0 0.0 0.0 0.0 0.0 0.0 0.0 0.0 0.0 0.0 0.0 0.0 0.0 0.0 0.0 0.0 0.0 0.0 0.0 0.0 0.0 0.0 0.0 0.0 0.0 0.0 0.0
0.0 0.0 0.0 0.0 0.0 0.0 0.0 0.0 0.0 0.0 0.0 0.0 0.0 0.0 0.0 0.0 0.0 0.0 0.0 0.0 0.0 0.0 0.0 0.0 0.0 0.0 0.0 0.0 0.0 0.0 0.0 0.0 0.0 0.0 0.0 0.0 0.0 0.0 0.0 0.0 0.0 0.0 0.0
0.0 0.0 0.0 0.0 0.0 0.0 0.0 0.0 0.0 0.0 0.0 0.0 0.0 0.0 0.0 0.0 0.0 0.0 0.0 0.0 0.0 0.0 0.0 0.0 0.0 0.0 0.0 0.0 0.0 0.0 0.0 0.0 0.0 0.0 0.0 0.0 0.0 0.0 0.0 0.0 0.0 0.0 0.0
0.0 0.0 0.0 0.0 0.0 0.0 0.0 0.0 0.0 0.0 0.0 0.0 0.0 0.0 0.0 0.0 0.0 0.0 0.0 0.0 0.0 0.0 0.0 0.0 0.0 0.0 0.0 0.0 0.0 0.0 0.0 0.0 0.0 0.0 0.0 0.0 0.0 0.0 0.0 0.0 0.0 0.0 0.0
0.0 0.0 0.0 0.0 0.0 0.0 0.0 0.0 0.0 0.0 0.0 0.0 0.0 0.0 0.0 0.0 0.0 0.0 0.0 0.0 0.0 0.0 0.0 0.0 0.0 0.0 0.0 0.0 0.0 0.0 0.0 0.0 0.0 0.0 0.0 0.0 0.0 0.0 0.0 0.0 0.0 0.0 0.0
0.0 0.0 0.0 0.0 0.0 0.0 0.0 0.0 0.0 0.0 0.0 0.0 0.0 0.0 0.0 0.0 0.0 0.0 0.0 0.0 0.0 0.0 0.0 0.0 0.0 0.0 0.0 0.0 0.0 0.0 0.0 0.0 0.0 0.0 0.0 0.0 0.0 0.0 0.0 0.0 0.0 0.0 0.0
0.0 0.0 0.0 0.0 0.0 0.0 0.0 0.0 0.0 0.0 0.0 0.0 0.0 0.0 0.0 0.0 0.0 0.0 0.0 0.0 0.0 0.0 0.0 0.0 0.0 0.0 0.0 0.0 0.0 0.0 0.0 0.0 0.0 0.0 0.0 0.0 0.0 0.0 0.0 0.0 0.0 0.0 0.0
0.0 0.0 0.0 0.0 0.0 0.0 0.0 0.0 0.0 0.0 0.0 0.0 0.0 0.0 0.0 0.0 0.0 0.0 0.0 0.0 0.0 0.0 0.0 0.0 0.0 0.0 0.0 0.0 0.0 0.0 0.0 0.0 0.0 0.0 0.0 0.0 0.0 0.0 0.0 0.0 0.0 0.0 0.0
0.0 0.0 0.0 0.0 0.0 0.0 0.0 0.0 0.0 0.0 0.0 0.0 0.0 0.0 0.0 0.0 0.0 0.0 0.0 0.0 0.0 0.0 0.0 0.0 0.0 0.0 0.0 0.0 0.0 0.0 0.0 0.0 0.0 0.0 0.0 0.0 0.0 0.0 0.0 0.0 0.0 0.0 0.0
0.0 0.0 0.0 0.0 0.0 0.0 0.0 0.0 0.0 0.0 0.0 0.0 0.0 0.0 0.0 0.0 0.0 0.0 0.0 0.0 0.0 0.0 0.0 0.0 0.0 0.0 0.0 0.0 0.0 0.0 0.0 0.0 0.0 0.0 0.0 0.0 0.0 0.0 0.0 0.0 0.0 0.0 0.0
0.0 0.0 0.0 0.0 0.0 0.0 0.0 0.0 0.0 0.0 0.0 0.0 0.0 0.0 0.0 0.0 0.0 0.0 0.0 0.0 0.0 0.0 0.0 0.0 0.0 0.0 0.0 0.0 0.0 0.0 0.0 0.0 0.0 0.0 0.0 0.0 0.0 0.0 0.0 0.0 0.0 0.0 0.0
0.0 0.0 0.0 0.0 0.0 0.0 0.0 0.0 0.0 0.0 0.0 0.0 0.0 0.0 0.0 0.0 0.0 0.0 0.0 0.0 0.0 0.0 0.0 0.0 0.0 0.0 0.0 0.0 0.0 0.0 0.0 0.0 0.0 0.0 0.0 0.0 0.0 0.0 0.0 0.0 0.0 0.0 0.0
0.0 0.0 0.0 0.0 0.0 0.0 0.0 0.0 0.0 0.0 0.0 0.0 0.0 0.0 0.0 0.0 0.0 0.0 0.0 0.0 0.0 0.0 0.0 0.0 0.0 0.0 0.0 0.0 0.0 0.0 0.0 0.0 0.0 0.0 0.0 0.0 0.0 0.0 0.0 0.0 0.0 0.0 0.0
0.0 0.0 0.0 0.0 0.0 0.0 0.0 0.0 0.0 0.0 0.0 0.0 0.0 0.0 0.0 0.0 0.0 0.0 0.0 0.0 0.0 0.0 0.0 0.0 0.0 0.0 0.0 0.0 0.0 0.0 0.0 0.0 0.0 0.0 0.0 0.0 0.0 0.0 0.0 0.0 0.1 0.0 0.1
0.0 0.0 0.0 0.0 0.0 0.0 0.0 0.0 0.0 0.0 0.0 0.0 0.0 0.0 0.0 0.0 0.0 0.0 0.0 0.0 0.0 0.0 0.0 0.0 0.0 0.0 0.0 0.0 0.0 0.0 0.0 0.0 0.0 0.0 0.0 0.0 0.0 0.0 0.0 0.0 0.0 0.0 0.1
0.0 0.0 0.0 0.0 0.0 0.0 0.0 0.1 0.0 0.1 0.0 0.1 0.0 0.0 0.0 0.0 0.0 0.0 0.0 0.0 0.0 0.0 0.0 0.0 0.0 0.0 0.0 0.0 0.0 0.0 0.0 0.0 0.0 0.0 0.0 0.0 0.0 0.0 0.0 0.0 0.0 0.0 0.1
0.1 0.0 0.3 0.0 0.1 0.1 0.2 0.3 0.4 0.2 0.0 0.3 0.2 0.2 0.9 0.0 0.6 0.7 0.0 0.0 0.1 0.0 0.0 0.0 0.0 0.0 0.0 0.0 0.0 0.0 0.0 0.0 0.0 0.0 0.0 0.0 0.0 0.0 0.0 0.0 0.0 0.0 0.1
1.7 1.3 1.1 1.0 0.9 0.5 0.5 0.2 0.5 0.5 0.3 0.5 0.4 0.7 0.8 1.5 1.7 1.8 1.1 0.8 0.3 0.5 0.5 0.7 0.0 0.0 0.0 0.0 0.0 0.0 0.0 0.0 0.0 0.0 0.0 0.0 0.0 0.0 0.0 0.1 0.1 0.1 0.0
3.5 6.0 1.8 1.6 2.1 1.7 1.7 1.5 0.8 0.7 0.5 1.4 1.4 1.7 1.9 1.4 1.2 1.0 0.8 0.8 0.9 0.6 1.3 0.4 0.2 0.4 0.0 0.0 0.0 0.0 0.0 0.0 0.0 0.0 0.0 0.0 0.0 0.0 0.1 0.1 0.1 0.0 0.0
4.1 3.4 6.5 6.1 4.5 4.5 3.2 2.3 1.6 2.1 3.4 3.8 4.6 1.9 1.2 1.5 2.9 2.4 3.8 4.8 2.2 2.9 3.1 5.3 3.0 3.9 1.3 1.4 2.2 0.0 0.0 0.0 0.0 0.0 0.0 0.0 0.0 0.2 0.1 0.0 0.1 0.2 0.2
3.8 3.6 3.0 4.9 6.4 5.4 6.0 6.2 4.1 4.6 3.8 4.4 4.2 3.7 4.0 5.6 6.0 6.0 6.4 9.5 11.0 8.5 4.4 5.5 6.5 7.1 5.3 7.3 6.7 2.9 4.9 2.7 0.0 0.0 0.0 0.0 0.2 0.2 0.1 0.0 0.0 1.7 0.5
2.8 2.1 2.9 2.4 1.5 1.0 1.1 5.1 7.9 6.9 5.9 5.1 4.8 5.7 5.5 5.8 6.6 6.8 8.3 8.3 9.6 13.1 15.0 14.4 12.9 12.8 12.1 10.7 8.9 8.0 8.4 6.8 5.5 3.6 2.7 1.5 0.5 0.1 0.9 0.7 0.5 1.9 1.8
1.7 0.9 0.8 0.4 0.2 0.1 0.0 0.7 2.3 3.2 4.2 5.2 6.7 6.3 6.2 6.4 5.9 6.3 7.0 7.6 8.7 8.5 8.4 9.3 12.0 14.0 13.8 14.5 13.1 13.8 13.0 12.1 11.5 11.1 9.7 7.7 4.5 2.9 3.0 2.8 4.4 6.2 3.0
1.5 0.5 0.1 0.0 0.4 0.5 0.6 0.1 0.0 0.1 0.6 1.1 1.4 2.6 3.2 3.5 3.6 3.7 4.0 4.4 5.8 6.9 7.9 8.2 8.0 7.9 7.3 8.8 8.8 8.9 8.6 8.6 10.7 11.3 12.6 12.4 13.8 14.7 12.9 18.1 17.5 12.0 17.2
3.5 1.2 0.7 0.6 1.1 0.5 0.4 0.6 0.4 0.1 0.1 0.2 0.7 1.0 1.3 1.6 1.9 2.3 2.2 2.3 3.7 3.1 3.2 4.7 4.5 4.9 7.2 9.3 7.1 7.6 10.1 10.2 11.2 15.9 22.2 24.5 24.7 25.9 27.2 25.8 25.0 22.9 20.5
2.9 1.9 2.0 1.3 1.0 0.1 0.5 0.5 0.3 0.0 0.0 0.0 0.6 0.2 0.7 0.5 0.8 1.0 1.6 1.7 2.0 1.8 1.2 1.3 4.7 6.2 10.2 13.3 12.7 13.1 13.6 15.1 15.5 17.0 18.3 18.8 17.5 17.2 17.3 16.3 15.3 13.5 12.4

GFSMW_prec_kuchsnow_114.txt.gz
Snowfall_Accumulation
0.0 0.0 0.0 0.0 0.0 0.0 0.0 0.0 0.0 0.0 0.0 0.0 0.0 0.0 0.0 0.0 0.0 0.0 0.0 0.0 0.0 0.0 0.0 0.0 0.0 0.0 0.0 0.0 0.0 0.0 0.0 0.0 0.0 0.0 0.0 0.0 0.0 0.0 0.0 0.0 0.0 0.0 0.0
0.0 0.0 0.0 0.0 0.0 0.0 0.0 0.0 0.0 0.0 0.0 0.0 0.0 0.0 0.0 0.0 0.0 0.0 0.0 0.0 0.0 0.0 0.0 0.0 0.0 0.0 0.0 0.0 0.0 0.0 0.0 0.0 0.0 0.0 0.0 0.0 0.0 0.0 0.0 0.0 0.0 0.0 0.0
0.0 0.0 0.0 0.0 0.0 0.0 0.0 0.0 0.0 0.0 0.0 0.0 0.0 0.0 0.0 0.0 0.0 0.0 0.0 0.0 0.0 0.0 0.0 0.0 0.0 0.0 0.0 0.0 0.0 0.0 0.0 0.0 0.0 0.0 0.0 0.0 0.0 0.0 0.0 0.0 0.0 0.0 0.0
0.0 0.0 0.0 0.0 0.0 0.0 0.0 0.0 0.0 0.0 0.0 0.0 0.0 0.0 0.0 0.0 0.0 0.0 0.0 0.0 0.0 0.0 0.0 0.0 0.0 0.0 0.0 0.0 0.0 0.0 0.0 0.0 0.0 0.0 0.0 0.0 0.0 0.0 0.0 0.0 0.0 0.0 0.0
0.0 0.0 0.0 0.0 0.0 0.0 0.0 0.0 0.0 0.0 0.0 0.0 0.0 0.0 0.0 0.0 0.0 0.0 0.0 0.0 0.0 0.0 0.0 0.0 0.0 0.0 0.0 0.0 0.0 0.0 0.0 0.0 0.0 0.0 0.0 0.0 0.0 0.0 0.0 0.0 0.0 0.0 0.0
0.0 0.0 0.0 0.0 0.0 0.0 0.0 0.0 0.0 0.0 0.0 0.0 0.0 0.0 0.0 0.0 0.0 0.0 0.0 0.0 0.0 0.0 0.0 0.0 0.0 0.0 0.0 0.0 0.0 0.0 0.0 0.0 0.0 0.0 0.0 0.0 0.0 0.0 0.0 0.0 0.0 0.0 0.0
0.0 0.0 0.0 0.0 0.0 0.0 0.0 0.0 0.0 0.0 0.0 0.0 0.0 0.0 0.0 0.0 0.0 0.0 0.0 0.0 0.0 0.0 0.0 0.0 0.0 0.0 0.0 0.0 0.0 0.0 0.0 0.0 0.0 0.0 0.0 0.0 0.0 0.0 0.0 0.0 0.0 0.0 0.0
0.0 0.0 0.0 0.0 0.0 0.0 0.0 0.0 0.0 0.0 0.0 0.0 0.0 0.0 0.0 0.0 0.0 0.0 0.0 0.0 0.0 0.0 0.0 0.0 0.0 0.0 0.0 0.0 0.0 0.0 0.0 0.0 0.0 0.0 0.0 0.0 0.0 0.0 0.0 0.0 0.0 0.0 0.0
0.0 0.0 0.0 0.0 0.0 0.0 0.0 0.0 0.0 0.0 0.0 0.0 0.0 0.0 0.0 0.0 0.0 0.0 0.0 0.0 0.0 0.0 0.0 0.0 0.0 0.0 0.0 0.0 0.0 0.0 0.0 0.0 0.0 0.0 0.0 0.0 0.0 0.0 0.0 0.0 0.0 0.0 0.0
0.0 0.0 0.0 0.0 0.0 0.0 0.0 0.0 0.0 0.0 0.0 0.0 0.0 0.0 0.0 0.0 0.0 0.0 0.0 0.0 0.0 0.0 0.0 0.0 0.0 0.0 0.0 0.0 0.0 0.0 0.0 0.0 0.0 0.0 0.0 0.0 0.0 0.0 0.0 0.0 0.0 0.0 0.0
0.0 0.0 0.0 0.0 0.0 0.0 0.0 0.0 0.0 0.0 0.0 0.0 0.0 0.0 0.0 0.0 0.0 0.0 0.0 0.0 0.0 0.0 0.0 0.0 0.0 0.0 0.0 0.0 0.0 0.0 0.0 0.0 0.0 0.0 0.0 0.0 0.0 0.0 0.0 0.0 0.0 0.0 0.0
0.0 0.0 0.0 0.0 0.0 0.0 0.0 0.0 0.0 0.0 0.0 0.0 0.0 0.0 0.0 0.0 0.0 0.0 0.0 0.0 0.0 0.0 0.0 0.0 0.0 0.0 0.0 0.0 0.0 0.0 0.0 0.0 0.0 0.0 0.0 0.0 0.0 0.0 0.0 0.0 0.0 0.0 0.0
0.0 0.0 0.0 0.0 0.0 0.0 0.0 0.0 0.0 0.0 0.0 0.0 0.0 0.0 0.0 0.0 0.0 0.0 0.0 0.0 0.0 0.0 0.0 0.0 0.0 0.0 0.0 0.0 0.0 0.0 0.0 0.0 0.0 0.0 0.0 0.0 0.0 0.0 0.0 0.0 0.0 0.0 0.0
0.0 0.0 0.0 0.0 0.0 0.0 0.0 0.0 0.0 0.0 0.0 0.0 0.0 0.0 0.0 0.0 0.0 0.0 0.0 0.0 0.0 0.0 0.0 0.0 0.0 0.0 0.0 0.0 0.0 0.0 0.0 0.0 0.0 0.0 0.0 0.0 0.0 0.0 0.0 0.0 0.1 0.0 0.1
0.0 0.0 0.0 0.0 0.0 0.0 0.0 0.0 0.0 0.0 0.0 0.0 0.0 0.0 0.0 0.0 0.0 0.0 0.0 0.0 0.0 0.0 0.0 0.0 0.0 0.0 0.0 0.0 0.0 0.0 0.0 0.0 0.0 0.0 0.0 0.0 0.0 0.0 0.0 0.0 0.0 0.0 0.1
0.0 0.0 0.0 0.0 0.0 0.0 0.0 0.1 0.0 0.1 0.0 0.1 0.0 0.0 0.0 0.0 0.0 0.0 0.0 0.0 0.0 0.0 0.0 0.0 0.0 0.0 0.0 0.0 0.0 0.0 0.0 0.0 0.0 0.0 0.0 0.0 0.0 0.0 0.0 0.0 0.0 0.0 0.1
0.1 0.0 0.3 0.0 0.2 0.2 0.3 0.3 0.4 0.2 0.0 0.3 0.2 0.2 0.9 0.0 0.7 0.7 0.0 0.1 0.2 0.0 0.0 0.1 0.1 0.0 0.0 0.0 0.0 0.0 0.0 0.0 0.0 0.0 0.0 0.0 0.0 0.0 0.0 0.0 0.0 0.0 0.1
1.7 1.3 1.3 1.1 1.1 0.6 0.6 0.3 0.5 0.5 0.3 0.5 0.4 0.7 0.8 1.5 2.0 2.0 1.3 1.1 0.6 0.7 0.8 1.1 0.4 0.2 0.4 0.0 0.0 0.0 0.0 0.0 0.0 0.0 0.0 0.0 0.0 0.0 0.0 0.1 0.1 0.1 0.0
3.6 6.2 1.9 1.7 2.2 1.8 1.7 1.5 0.8 0.9 0.5 1.4 1.4 1.7 1.9 1.4 1.2 1.0 0.8 0.8 0.9 0.9 1.9 1.0 0.9 0.9 0.7 0.6 0.7 1.1 0.0 0.0 0.0 0.0 0.0 0.0 0.0 0.0 0.1 0.1 0.1 0.0 0.0
4.2 3.5 6.6 6.1 4.5 4.7 3.2 2.6 2.0 2.4 3.4 3.8 4.6 1.9 1.2 1.5 2.9 2.4 3.8 4.8 2.2 2.9 3.1 5.3 3.0 4.1 1.7 1.9 2.8 1.0 1.7 0.0 3.3 0.0 0.0 0.0 0.0 0.2 0.1 0.0 0.1 0.2 0.2
3.9 3.7 3.0 4.9 6.8 5.9 6.3 6.2 4.1 4.6 3.8 4.4 4.2 3.7 4.0 5.6 6.0 6.0 6.4 9.5 11.0 8.5 4.4 5.5 6.5 7.1 5.5 7.7 7.2 3.7 7.1 6.1 2.5 2.5 0.0 0.0 0.2 0.2 0.1 0.0 0.0 1.7 0.5
2.8 2.1 2.9 2.4 1.5 1.0 1.1 5.1 7.9 6.9 5.9 5.1 4.8 5.7 5.5 5.8 6.6 6.8 8.3 8.3 9.6 13.1 15.0 14.4 12.9 12.8 12.1 10.7 8.9 8.0 8.4 7.7 7.6 6.6 5.6 4.2 2.6 1.7 2.2 0.7 0.5 1.9 1.8
1.7 0.9 0.8 0.4 0.2 0.1 0.0 0.7 2.3 3.2 4.2 5.2 6.7 6.3 6.2 6.4 5.9 6.3 7.0 7.6 8.7 8.5 8.4 9.3 12.0 14.0 13.8 14.5 13.1 13.8 13.0 12.1 12.5 12.7 12.0 10.6 7.6 5.8 5.5 4.5 5.7 6.8 3.1
1.5 0.5 0.1 0.0 0.4 0.5 0.6 0.1 0.0 0.1 0.6 1.1 1.4 2.6 3.2 3.5 3.6 3.7 4.0 4.4 5.8 6.9 7.9 8.2 8.0 7.9 7.3 8.8 8.8 8.9 8.6 8.6 10.7 11.3 12.6 12.4 15.5 17.1 15.9 21.3 20.2 14.1 18.5
3.5 1.2 0.7 0.6 1.1 0.5 0.4 0.6 0.4 0.1 0.1 0.2 0.7 1.0 1.3 1.6 1.9 2.4 2.4 2.3 3.7 3.1 3.3 4.9 4.5 5.0 7.4 9.4 7.1 7.6 10.1 10.2 11.2 15.9 22.2 24.5 24.7 25.9 27.2 26.9 26.7 25.1 22.7
2.9 1.9 2.0 1.3 1.0 0.1 0.5 0.5 0.3 0.0 0.0 0.0 0.6 0.2 0.7 0.5 0.8 1.0 1.6 1.8 2.0 1.8 1.2 1.3 4.8 6.2 10.2 13.3 12.7 13.1 13.6 15.1 15.5 17.0 18.3 18.8 17.5 17.3 17.4 16.3 15.3 13.5 12.4

GFSMW_prec_kuchsnow_117.txt.gz
Snowfall_Accumulation
0.0 0.0 0.0 0.0 0.0 0.0 0.0 0.0 0.0 0.0 0.0 0.0 0.0 0.0 0.0 0.0 0.0 0.0 0.0 0.0 0.0 0.0 0.0 0.0 0.0 0.0 0.0 0.0 0.0 0.0 0.0 0.0 0.0 0.0 0.0 0.0 0.0 0.0 0.0 0.0 0.0 0.0 0.0
0.0 0.0 0.0 0.0 0.0 0.0 0.0 0.0 0.0 0.0 0.0 0.0 0.0 0.0 0.0 0.0 0.0 0.0 0.0 0.0 0.0 0.0 0.0 0.0 0.0 0.0 0.0 0.0 0.0 0.0 0.0 0.0 0.0 0.0 0.0 0.0 0.0 0.0 0.0 0.0 0.0 0.0 0.0
0.0 0.0 0.0 0.0 0.0 0.0 0.0 0.0 0.0 0.0 0.0 0.0 0.0 0.0 0.0 0.0 0.0 0.0 0.0 0.0 0.0 0.0 0.0 0.0 0.0 0.0 0.0 0.0 0.0 0.0 0.0 0.0 0.0 0.0 0.0 0.0 0.0 0.0 0.0 0.0 0.0 0.0 0.0
0.0 0.0 0.0 0.0 0.0 0.0 0.0 0.0 0.0 0.0 0.0 0.0 0.0 0.0 0.0 0.0 0.0 0.0 0.0 0.0 0.0 0.0 0.0 0.0 0.0 0.0 0.0 0.0 0.0 0.0 0.0 0.0 0.0 0.0 0.0 0.0 0.0 0.0 0.0 0.0 0.0 0.0 0.0
0.0 0.0 0.0 0.0 0.0 0.0 0.0 0.0 0.0 0.0 0.0 0.0 0.0 0.0 0.0 0.0 0.0 0.0 0.0 0.0 0.0 0.0 0.0 0.0 0.0 0.0 0.0 0.0 0.0 0.0 0.0 0.0 0.0 0.0 0.0 0.0 0.0 0.0 0.0 0.0 0.0 0.0 0.0
0.0 0.0 0.0 0.0 0.0 0.0 0.0 0.0 0.0 0.0 0.0 0.0 0.0 0.0 0.0 0.0 0.0 0.0 0.0 0.0 0.0 0.0 0.0 0.0 0.0 0.0 0.0 0.0 0.0 0.0 0.0 0.0 0.0 0.0 0.0 0.0 0.0 0.0 0.0 0.0 0.0 0.0 0.0
0.0 0.0 0.0 0.0 0.0 0.0 0.0 0.0 0.0 0.0 0.0 0.0 0.0 0.0 0.0 0.0 0.0 0.0 0.0 0.0 0.0 0.0 0.0 0.0 0.0 0.0 0.0 0.0 0.0 0.0 0.0 0.0 0.0 0.0 0.0 0.0 0.0 0.0 0.0 0.0 0.0 0.0 0.0
1.0 0.5 0.1 0.0 0.0 0.0 0.0 0.0 0.0 0.0 0.0 0.0 0.0 0.0 0.0 0.0 0.0 0.0 0.0 0.0 0.0 0.0 0.0 0.0 0.0 0.0 0.0 0.0 0.0 0.0 0.0 0.0 0.0 0.0 0.0 0.0 0.0 0.0 0.0 0.0 0.0 0.0 0.0
0.0 1.9 0.9 0.1 0.0 0.0 0.0 0.0 0.0 0.0 0.0 0.0 0.0 0.0 0.0 0.0 0.0 0.0 0.0 0.0 0.0 0.0 0.0 0.0 0.0 0.0 0.0 0.0 0.0 0.0 0.0 0.0 0.0 0.0 0.0 0.0 0.0 0.0 0.0 0.0 0.0 0.0 0.0
1.6 0.0 0.8 0.4 0.0 0.0 0.0 0.0 0.0 0.0 0.0 0.0 0.0 0.0 0.0 0.0 0.0 0.0 0.0 0.0 0.0 0.0 0.0 0.0 0.0 0.0 0.0 0.0 0.0 0.0 0.0 0.0 0.0 0.0 0.0 0.0 0.0 0.0 0.0 0.0 0.0 0.0 0.0
0.6 0.5 0.5 0.2 0.0 0.0 0.0 0.0 0.0 0.0 0.0 0.0 0.0 0.0 0.0 0.0 0.0 0.0 0.0 0.0 0.0 0.0 0.0 0.0 0.0 0.0 0.0 0.0 0.0 0.0 0.0 0.0 0.0 0.0 0.0 0.0 0.0 0.0 0.0 0.0 0.0 0.0 0.0
0.0 0.2 0.1 0.0 0.0 0.0 0.0 0.0 0.0 0.0 0.0 0.0 0.0 0.0 0.0 0.0 0.0 0.0 0.0 0.0 0.0 0.0 0.0 0.0 0.0 0.0 0.0 0.0 0.0 0.0 0.0 0.0 0.0 0.0 0.0 0.0 0.0 0.0 0.0 0.0 0.0 0.0 0.0
0.0 0.0 0.0 0.0 0.0 0.0 0.0 0.0 0.0 0.0 0.0 0.0 0.0 0.0 0.0 0.0 0.0 0.0 0.0 0.0 0.0 0.0 0.0 0.0 0.0 0.0 0.0 0.0 0.0 0.0 0.0 0.0 0.0 0.0 0.0 0.0 0.0 0.0 0.0 0.0 0.0 0.0 0.0
0.0 0.0 0.0 0.0 0.0 0.0 0.0 0.0 0.0 0.0 0.0 0.0 0.0 0.0 0.0 0.0 0.0 0.0 0.0 0.0 0.0 0.0 0.0 0.0 0.0 0.0 0.0 0.0 0.0 0.0 0.0 0.0 0.0 0.0 0.0 0.0 0.0 0.0 0.0 0.0 0.1 0.0 0.1
0.0 0.0 0.0 0.0 0.0 0.0 0.0 0.0 0.0 0.0 0.0 0.0 0.0 0.0 0.0 0.0 0.0 0.0 0.0 0.0 0.0 0.0 0.0 0.0 0.0 0.0 0.0 0.0 0.0 0.0 0.0 0.0 0.0 0.0 0.0 0.0 0.0 0.0 0.0 0.0 0.0 0.0 0.1
0.0 0.0 0.0 0.0 0.0 0.0 0.1 0.1 0.1 0.1 0.0 0.1 0.0 0.0 0.0 0.0 0.0 0.0 0.0 0.0 0.0 0.0 0.0 0.0 0.0 0.0 0.0 0.0 0.0 0.0 0.0 0.0 0.0 0.0 0.0 0.0 0.0 0.0 0.0 0.0 0.0 0.0 0.1
0.1 0.0 0.3 0.1 0.2 0.3 0.4 0.5 0.5 0.2 0.0 0.3 0.2 0.2 0.9 0.0 0.7 0.7 0.0 0.1 0.2 0.0 0.0 0.1 0.1 0.0 0.2 0.0 0.0 0.0 0.0 0.0 0.0 0.0 0.0 0.0 0.0 0.0 0.0 0.0 0.0 0.0 0.1
1.7 1.3 1.3 1.1 1.1 0.6 0.7 0.4 0.6 0.5 0.3 0.5 0.4 0.7 0.8 1.5 2.0 2.0 1.3 1.1 0.6 0.7 0.8 1.1 0.4 0.2 0.9 0.4 0.4 0.6 0.7 0.6 0.0 0.0 0.0 0.0 0.0 0.0 0.0 0.1 0.1 0.1 0.0
3.6 6.2 1.9 1.8 2.2 1.8 1.7 1.6 1.0 1.0 0.5 1.4 1.4 1.7 1.9 1.4 1.2 1.0 0.8 0.8 0.9 0.9 1.9 1.0 0.9 0.9 1.7 1.4 1.6 2.1 1.2 0.9 0.9 1.1 0.0 0.0 0.0 0.0 0.1 0.1 0.1 0.0 0.0
4.2 3.6 6.6 6.1 4.5 4.7 3.2 2.8 2.2 2.4 3.4 3.8 4.6 1.9 1.2 1.5 2.9 2.4 3.8 4.8 2.2 2.9 3.1 5.3 3.0 4.1 1.7 1.9 3.3 1.9 3.0 1.5 5.2 2.4 3.0 3.3 0.0 0.2 0.1 0.0 0.1 0.2 0.2
3.9 3.7 3.0 4.9 7.0 6.0 6.3 6.2 4.1 4.6 3.8 4.4 4.2 3.7 4.0 5.6 6.0 6.0 6.4 9.5 11.0 8.5 4.4 5.5 6.5 7.1 5.5 7.7 7.2 3.7 7.5 7.2 4.0 4.4 2.9 3.7 3.4 3.2 0.1 0.0 0.0 1.7 0.5
2.8 2.1 3.0 2.5 1.5 1.0 1.1 5.1 7.9 6.9 5.9 5.1 4.8 5.7 5.5 5.8 6.6 6.8 8.3 8.3 9.6 13.1 15.0 14.4 12.9 12.8 12.1 10.7 8.9 8.0 8.4 7.7 8.0 7.5 7.3 6.9 5.3 4.5 5.0 3.7 2.8 3.6 3.4
1.7 0.9 0.8 0.4 0.2 0.1 0.0 0.7 2.3 3.2 4.2 5.2 6.7 6.3 6.2 6.4 5.9 6.3 7.0 7.6 8.7 8.5 8.4 9.3 12.0 14.0 13.8 14.5 13.1 13.8 13.0 12.1 12.5 12.7 12.0 11.0 8.2 7.0 7.9 7.6 8.8 9.7 5.6
1.5 0.5 0.1 0.0 0.4 0.5 0.6 0.1 0.0 0.1 0.6 1.1 1.4 2.6 3.2 3.5 3.6 3.7 4.0 4.4 5.8 6.9 8.0 8.2 8.0 7.9 7.3 8.9 8.8 8.9 8.6 8.6 10.7 11.3 12.6 12.4 15.5 17.1 16.3 22.2 21.8 16.4 21.6
3.5 1.2 0.7 0.6 1.1 0.5 0.4 0.6 0.4 0.1 0.1 0.2 0.7 1.0 1.3 1.6 1.9 2.4 2.4 2.3 3.7 3.1 3.3 5.1 4.5 5.0 7.4 9.4 7.1 7.6 10.1 10.2 11.2 15.9 22.2 24.5 24.7 25.9 27.2 26.9 27.1 25.8 23.9
2.9 1.9 2.0 1.3 1.0 0.1 0.5 0.5 0.3 0.0 0.0 0.0 0.6 0.2 0.7 0.5 0.8 1.0 1.6 1.8 2.0 1.8 1.2 1.3 4.8 6.2 10.2 13.3 12.7 13.1 13.6 15.1 15.5 17.0 18.3 18.8 17.5 17.3 17.5 16.3 15.3 13.5 12.4

GFSMW_prec_kuchsnow_120.txt.gz
Snowfall_Accumulation
0.0 0.0 0.0 0.0 0.0 0.0 0.0 0.0 0.0 0.0 0.0 0.0 0.0 0.0 0.0 0.0 0.0 0.0 0.0 0.0 0.0 0.0 0.0 0.0 0.0 0.0 0.0 0.0 0.0 0.0 0.0 0.0 0.0 0.0 0.0 0.0 0.0 0.0 0.0 0.0 0.0 0.0 0.0
0.0 0.0 0.0 0.0 0.0 0.0 0.0 0.0 0.0 0.0 0.0 0.0 0.0 0.0 0.0 0.0 0.0 0.0 0.0 0.0 0.0 0.0 0.0 0.0 0.0 0.0 0.0 0.0 0.0 0.0 0.0 0.0 0.0 0.0 0.0 0.0 0.0 0.0 0.0 0.0 0.0 0.0 0.0
0.0 0.0 0.0 0.0 0.0 0.0 0.0 0.0 0.0 0.0 0.0 0.0 0.0 0.0 0.0 0.0 0.0 0.0 0.0 0.0 0.0 0.0 0.0 0.0 0.0 0.0 0.0 0.0 0.0 0.0 0.0 0.0 0.0 0.0 0.0 0.0 0.0 0.0 0.0 0.0 0.0 0.0 0.0
0.0 0.0 0.0 0.0 0.0 0.0 0.0 0.0 0.0 0.0 0.0 0.0 0.0 0.0 0.0 0.0 0.0 0.0 0.0 0.0 0.0 0.0 0.0 0.0 0.0 0.0 0.0 0.0 0.0 0.0 0.0 0.0 0.0 0.0 0.0 0.0 0.0 0.0 0.0 0.0 0.0 0.0 0.0
0.0 0.0 0.0 0.0 0.0 0.0 0.0 0.0 0.0 0.0 0.0 0.0 0.0 0.0 0.0 0.0 0.0 0.0 0.0 0.0 0.0 0.0 0.0 0.0 0.0 0.0 0.0 0.0 0.0 0.0 0.0 0.0 0.0 0.0 0.0 0.0 0.0 0.0 0.0 0.0 0.0 0.0 0.0
0.0 0.0 0.0 0.0 0.0 0.0 0.0 0.0 0.0 0.0 0.0 0.0 0.0 0.0 0.0 0.0 0.0 0.0 0.0 0.0 0.0 0.0 0.0 0.0 0.0 0.0 0.0 0.0 0.0 0.0 0.0 0.0 0.0 0.0 0.0 0.0 0.0 0.0 0.0 0.0 0.0 0.0 0.0
0.0 0.0 0.0 0.0 0.0 0.0 0.0 0.0 0.0 0.0 0.0 0.0 0.0 0.0 0.0 0.0 0.0 0.0 0.0 0.0 0.0 0.0 0.0 0.0 0.0 0.0 0.0 0.0 0.0 0.0 0.0 0.0 0.0 0.0 0.0 0.0 0.0 0.0 0.0 0.0 0.0 0.0 0.0
1.0 0.5 0.1 0.0 0.0 0.0 0.0 0.0 0.0 0.0 0.0 0.0 0.0 0.0 0.0 0.0 0.0 0.0 0.0 0.0 0.0 0.0 0.0 0.0 0.0 0.0 0.0 0.0 0.0 0.0 0.0 0.0 0.0 0.0 0.0 0.0 0.0 0.0 0.0 0.0 0.0 0.0 0.0
0.0 1.9 0.9 0.6 0.3 0.0 0.0 0.0 0.0 0.0 0.0 0.0 0.0 0.0 0.0 0.0 0.0 0.0 0.0 0.0 0.0 0.0 0.0 0.0 0.0 0.0 0.0 0.0 0.0 0.0 0.0 0.0 0.0 0.0 0.0 0.0 0.0 0.0 0.0 0.0 0.0 0.0 0.0
1.6 0.0 0.8 0.4 0.0 0.0 0.0 0.0 0.0 0.0 0.0 0.0 0.0 0.0 0.0 0.0 0.0 0.0 0.0 0.0 0.0 0.0 0.0 0.0 0.0 0.0 0.0 0.0 0.0 0.0 0.0 0.0 0.0 0.0 0.0 0.0 0.0 0.0 0.0 0.0 0.0 0.0 0.0
0.6 0.5 0.5 0.2 0.0 0.0 0.0 0.1 0.1 0.0 0.0 0.0 0.0 0.0 0.0 0.0 0.0 0.0 0.0 0.0 0.0 0.0 0.0 0.0 0.0 0.0 0.0 0.0 0.0 0.0 0.0 0.0 0.0 0.0 0.0 0.0 0.0 0.0 0.0 0.0 0.0 0.0 0.0
0.0 0.2 0.1 0.0 0.0 0.0 0.0 0.0 0.0 0.0 0.0 0.0 0.0 0.0 0.0 0.0 0.0 0.0 0.0 0.0 0.0 0.0 0.0 0.0 0.0 0.0 0.0 0.0 0.0 0.0 0.0 0.0 0.0 0.0 0.0 0.0 0.0 0.0 0.0 0.0 0.0 0.0 0.0
0.0 0.0 0.0 0.0 0.0 0.0 0.0 0.0 0.0 0.0 0.0 0.0 0.0 0.0 0.0 0.0 0.0 0.0 0.0 0.0 0.0 0.0 0.0 0.0 0.0 0.0 0.0 0.0 0.0 0.0 0.0 0.0 0.0 0.0 0.0 0.0 0.0 0.0 0.0 0.0 0.0 0.0 0.0
0.0 0.0 0.0 0.0 0.0 0.0 0.0 0.0 0.0 0.0 0.0 0.0 0.0 0.0 0.0 0.0 0.0 0.0 0.0 0.0 0.0 0.0 0.0 0.0 0.0 0.0 0.0 0.0 0.0 0.0 0.0 0.0 0.0 0.0 0.0 0.0 0.0 0.0 0.0 0.0 0.1 0.0 0.1
0.0 0.0 0.0 0.0 0.0 0.0 0.0 0.0 0.0 0.0 0.0 0.0 0.0 0.0 0.0 0.0 0.0 0.0 0.0 0.0 0.0 0.0 0.0 0.0 0.0 0.0 0.0 0.0 0.0 0.0 0.0 0.0 0.0 0.0 0.0 0.0 0.0 0.0 0.0 0.0 0.0 0.0 0.1
0.0 0.0 0.0 0.0 0.0 0.0 0.1 0.1 0.1 0.1 0.0 0.1 0.0 0.0 0.0 0.0 0.0 0.0 0.0 0.0 0.0 0.0 0.0 0.0 0.0 0.0 0.0 0.0 0.0 0.0 0.0 0.0 0.0 0.0 0.0 0.0 0.0 0.0 0.0 0.0 0.0 0.0 0.1
0.1 0.0 0.3 0.1 0.2 0.4 0.4 0.5 0.5 0.2 0.0 0.3 0.2 0.2 0.9 0.0 0.7 0.7 0.0 0.1 0.2 0.0 0.0 0.1 0.1 0.0 0.2 0.0 0.0 0.0 0.0 0.0 0.0 0.0 0.0 0.0 0.0 0.0 0.0 0.0 0.0 0.0 0.1
1.7 1.3 1.3 1.1 1.1 0.6 0.7 0.5 0.7 0.5 0.3 0.5 0.4 0.7 0.8 1.5 2.0 2.0 1.3 1.1 0.6 0.7 0.9 1.1 0.4 0.2 0.9 0.4 0.4 0.6 0.7 0.6 0.0 0.9 0.9 0.8 0.0 0.0 0.0 0.1 0.1 0.1 0.0
3.6 6.2 1.9 1.8 2.3 1.8 1.7 1.6 1.3 1.3 0.5 1.4 1.4 1.7 1.9 1.4 1.2 1.0 0.8 0.8 0.9 0.9 1.9 1.0 0.9 0.9 1.7 1.4 1.6 2.1 1.2 0.9 0.9 1.1 1.0 0.9 1.4 2.0 2.6 0.1 0.1 0.0 0.0
4.2 3.6 6.6 6.1 4.5 4.8 3.2 2.9 2.2 2.4 3.4 3.8 4.6 1.9 1.2 1.5 2.9 2.4 3.8 4.8 2.2 2.9 3.1 5.3 3.0 4.2 1.7 1.9 3.3 1.9 3.0 1.5 5.2 3.1 3.0 3.3 1.8 1.8 1.9 0.0 0.1 0.2 0.2
3.9 3.7 3.0 4.9 7.1 6.0 6.3 6.2 4.1 4.6 3.8 4.4 4.2 3.7 4.0 5.6 6.0 6.0 6.4 9.5 11.0 8.5 4.4 5.5 6.5 7.1 5.5 7.7 7.2 3.7 7.5 7.4 4.2 4.7 3.4 5.0 5.0 5.3 2.5 3.2 3.5 4.3 0.5
2.8 2.1 3.0 2.6 1.5 1.0 1.1 5.1 7.9 6.9 5.9 5.1 4.8 5.7 5.5 5.8 6.6 6.8 8.3 8.3 9.6 13.1 15.0 14.4 12.9 12.8 12.1 10.7 8.9 8.0 8.4 7.7 8.0 7.6 7.5 6.9 5.3 4.5 6.8 6.3 6.3 7.3 6.5
1.7 0.9 0.8 0.4 0.2 0.1 0.0 0.7 2.3 3.2 4.2 5.2 6.7 6.3 6.2 6.4 5.9 6.3 7.0 7.6 8.7 8.5 8.4 9.3 12.0 14.0 13.8 14.5 13.1 13.8 13.0 12.1 12.5 12.7 12.0 11.0 8.2 7.0 7.9 8.4 10.2 12.0 7.8
1.5 0.5 0.1 0.0 0.4 0.5 0.6 0.1 0.0 0.1 0.6 1.1 1.4 2.6 3.2 3.5 3.6 3.7 4.0 4.4 5.8 6.9 8.0 8.2 8.0 7.9 7.3 8.9 8.8 8.9 8.6 8.6 10.7 11.3 12.6 12.4 15.5 17.1 16.3 22.2 21.8 17.1 22.9
3.5 1.2 0.7 0.6 1.1 0.5 0.4 0.6 0.4 0.1 0.1 0.2 0.7 1.0 1.3 1.6 1.9 2.4 2.4 2.3 3.7 3.1 3.3 5.1 4.5 5.0 7.4 9.4 7.1 7.6 10.1 10.2 11.2 15.9 22.2 24.5 24.7 25.9 27.2 26.9 27.1 25.8 23.9
2.9 1.9 2.0 1.3 1.0 0.1 0.5 0.5 0.3 0.0 0.0 0.0 0.6 0.2 0.7 0.5 0.8 1.0 1.6 1.8 2.0 1.8 1.2 1.3 4.8 6.2 10.2 13.3 12.7 13.1 13.6 15.1 15.5 17.0 18.3 18.8 17.5 17.3 17.5 16.3 15.3 13.5 12.4

GFSMW_prec_kuchsnow_126.txt.gz
Snowfall_Accumulation
0.0 0.0 0.0 0.0 0.0 0.0 0.0 0.0 0.0 0.0 0.0 0.0 0.0 0.0 0.0 0.0 0.0 0.0 0.0 0.0 0.0 0.0 0.0 0.0 0.0 0.0 0.0 0.0 0.0 0.0 0.0 0.0 0.0 0.0 0.0 0.0 0.0 0.0 0.0 0.0 0.0 0.0 0.0
0.0 0.0 0.0 0.0 0.0 0.0 0.0 0.0 0.0 0.0 0.0 0.0 0.0 0.0 0.0 0.0 0.0 0.0 0.0 0.0 0.0 0.0 0.0 0.0 0.0 0.0 0.0 0.0 0.0 0.0 0.0 0.0 0.0 0.0 0.0 0.0 0.0 0.0 0.0 0.0 0.0 0.0 0.0
0.0 0.0 0.0 0.0 0.0 0.0 0.0 0.0 0.0 0.0 0.0 0.0 0.0 0.0 0.0 0.0 0.0 0.0 0.0 0.0 0.0 0.0 0.0 0.0 0.0 0.0 0.0 0.0 0.0 0.0 0.0 0.0 0.0 0.0 0.0 0.0 0.0 0.0 0.0 0.0 0.0 0.0 0.0
0.0 0.0 0.0 0.0 0.0 0.0 0.0 0.0 0.0 0.0 0.0 0.0 0.0 0.0 0.0 0.0 0.0 0.0 0.0 0.0 0.0 0.0 0.0 0.0 0.0 0.0 0.0 0.0 0.0 0.0 0.0 0.0 0.0 0.0 0.0 0.0 0.0 0.0 0.0 0.0 0.0 0.0 0.0
0.0 0.0 0.0 0.0 0.0 0.0 0.0 0.0 0.0 0.0 0.0 0.0 0.0 0.0 0.0 0.0 0.0 0.0 0.0 0.0 0.0 0.0 0.0 0.0 0.0 0.0 0.0 0.0 0.0 0.0 0.0 0.0 0.0 0.0 0.0 0.0 0.0 0.0 0.0 0.0 0.0 0.0 0.0
0.0 0.0 0.0 0.0 0.0 0.0 0.0 0.0 0.0 0.0 0.0 0.0 0.0 0.0 0.0 0.0 0.0 0.0 0.0 0.0 0.0 0.0 0.0 0.0 0.0 0.0 0.0 0.0 0.0 0.0 0.0 0.0 0.0 0.0 0.0 0.0 0.0 0.0 0.0 0.0 0.0 0.0 0.0
0.0 0.0 0.0 0.0 0.0 0.0 0.0 0.0 0.0 0.0 0.0 0.0 0.0 0.0 0.0 0.0 0.0 0.0 0.0 0.0 0.0 0.0 0.0 0.0 0.0 0.0 0.0 0.0 0.0 0.0 0.0 0.0 0.0 0.0 0.0 0.0 0.0 0.0 0.0 0.0 0.0 0.0 0.0
1.0 0.5 0.1 0.0 0.0 0.0 0.0 0.0 0.0 0.0 0.0 0.0 0.0 0.0 0.0 0.0 0.0 0.0 0.0 0.0 0.0 0.0 0.0 0.0 0.0 0.0 0.0 0.0 0.0 0.0 0.0 0.0 0.0 0.0 0.0 0.0 0.0 0.0 0.0 0.0 0.0 0.0 0.0
0.0 1.9 0.9 0.6 0.3 0.0 0.0 0.0 0.0 0.0 0.0 0.0 0.0 0.0 0.0 0.0 0.0 0.0 0.0 0.0 0.0 0.0 0.0 0.0 0.0 0.0 0.0 0.0 0.0 0.0 0.0 0.0 0.0 0.0 0.0 0.0 0.0 0.0 0.0 0.0 0.0 0.0 0.0
1.6 0.0 0.8 0.4 0.0 0.0 0.0 0.0 0.0 0.0 0.0 0.0 0.0 0.0 0.0 0.0 0.0 0.0 0.0 0.0 0.0 0.0 0.0 0.0 0.0 0.0 0.0 0.0 0.0 0.0 0.0 0.0 0.0 0.0 0.0 0.0 0.0 0.0 0.0 0.0 0.0 0.0 0.0
0.6 0.5 0.5 0.2 0.0 0.0 0.0 0.1 0.1 0.0 0.0 0.0 0.0 0.0 0.0 0.0 0.0 0.0 0.0 0.0 0.0 0.0 0.0 0.0 0.0 0.0 0.0 0.0 0.0 0.0 0.0 0.0 0.0 0.0 0.0 0.0 0.0 0.0 0.0 0.0 0.0 0.0 0.0
0.0 0.2 0.1 0.0 0.0 0.0 0.0 0.0 0.0 0.0 0.0 0.0 0.0 0.0 0.0 0.0 0.0 0.0 0.0 0.0 0.0 0.0 0.0 0.0 0.0 0.0 0.0 0.0 0.0 0.0 0.0 0.0 0.0 0.0 0.0 0.0 0.0 0.0 0.0 0.0 0.0 0.0 0.0
0.0 0.0 0.0 0.0 0.0 0.0 0.0 0.0 0.0 0.0 0.0 0.0 0.0 0.0 0.0 0.0 0.0 0.0 0.0 0.0 0.0 0.0 0.0 0.0 0.0 0.0 0.0 0.0 0.0 0.0 0.0 0.0 0.0 0.0 0.0 0.0 0.0 0.0 0.0 0.0 0.0 0.0 0.0
0.0 0.0 0.0 0.0 0.0 0.0 0.0 0.0 0.0 0.0 0.0 0.0 0.0 0.0 0.0 0.0 0.0 0.0 0.0 0.0 0.0 0.0 0.0 0.0 0.0 0.0 0.0 0.0 0.0 0.0 0.0 0.0 0.0 0.0 0.0 0.0 0.0 0.0 0.0 0.0 0.1 0.0 0.1
0.0 0.0 0.0 0.0 0.0 0.0 0.0 0.0 0.0 0.0 0.0 0.0 0.0 0.0 0.0 0.0 0.0 0.0 0.0 0.0 0.0 0.0 0.0 0.0 0.0 0.0 0.0 0.0 0.0 0.0 0.0 0.0 0.0 0.0 0.0 0.0 0.0 0.0 0.0 0.0 0.0 0.0 0.1
0.0 0.0 0.0 0.0 0.0 0.0 0.1 0.1 0.1 0.1 0.0 0.1 0.0 0.0 0.0 0.0 0.0 0.0 0.0 0.0 0.0 0.0 0.0 0.0 0.0 0.0 0.0 0.0 0.0 0.0 0.0 0.0 0.0 0.0 0.0 0.0 0.0 0.0 0.0 0.0 0.0 0.0 0.1
0.1 0.0 0.3 0.1 0.2 0.4 0.4 0.5 0.5 0.2 0.0 0.3 0.2 0.2 0.9 0.0 0.7 0.7 0.0 0.1 0.2 0.0 0.0 0.1 0.1 0.0 0.2 0.0 0.0 0.0 0.0 0.0 0.0 0.0 0.0 0.0 0.0 0.0 0.0 0.0 0.0 0.0 0.1
1.7 1.3 1.3 1.1 1.1 0.6 0.7 0.5 0.7 0.5 0.3 0.5 0.4 0.7 0.8 1.5 2.0 2.0 1.3 1.1 0.6 0.7 0.9 1.2 0.4 0.2 0.9 0.4 0.4 0.6 0.7 0.6 0.0 1.0 1.0 0.8 0.1 0.0 0.0 0.1 0.1 0.1 0.1
3.6 6.2 1.9 1.8 2.3 1.8 1.7 1.6 1.3 1.3 0.5 1.4 1.4 1.7 1.9 1.4 1.2 1.0 0.8 0.8 0.9 0.9 1.9 1.0 0.9 1.0 1.7 1.4 1.6 2.1 1.2 0.9 0.9 1.1 1.0 0.9 1.6 2.3 3.0 0.7 1.0 1.3 1.6
4.2 3.6 6.6 6.1 4.5 4.8 3.2 2.9 2.2 2.4 3.4 3.8 4.6 1.9 1.2 1.5 2.9 2.4 3.8 4.8 2.2 2.9 3.1 5.3 3.0 4.2 1.7 1.9 3.3 1.9 3.0 1.5 5.2 3.1 3.1 3.3 1.8 1.8 1.9 1.0 1.7 2.4 3.5
3.9 3.7 3.0 4.9 7.1 6.0 6.3 6.2 4.1 4.6 3.8 4.4 4.2 3.7 4.0 5.6 6.0 6.0 6.4 9.5 11.0 8.5 4.4 5.5 6.5 7.1 5.5 7.7 7.2 3.7 7.5 7.4 4.2 4.7 3.4 5.1 5.0 5.3 2.5 3.2 5.2 7.7 4.3
2.8 2.1 3.0 2.6 1.5 1.0 1.1 5.1 7.9 6.9 5.9 5.1 4.8 5.7 5.5 5.8 6.6 6.8 8.3 8.3 9.6 13.1 15.0 14.4 12.9 12.8 12.1 10.7 8.9 8.0 8.4 7.7 8.0 7.6 7.5 6.9 5.3 4.5 6.8 6.3 6.3 7.3 6.5
1.7 0.9 0.8 0.4 0.2 0.1 0.0 0.7 2.3 3.2 4.2 5.2 6.7 6.3 6.2 6.4 5.9 6.3 7.0 7.6 8.7 8.5 8.4 9.3 12.0 14.0 13.8 14.5 13.1 13.8 13.0 12.1 12.5 12.7 12.0 11.0 8.2 7.0 7.9 8.4 10.2 12.3 7.8
1.5 0.5 0.1 0.0 0.4 0.5 0.6 0.1 0.0 0.1 0.6 1.1 1.4 2.6 3.2 3.5 3.6 3.7 4.0 4.4 5.8 6.9 8.0 8.2 8.0 7.9 7.3 8.9 8.8 8.9 8.6 8.6 10.7 11.3 12.6 12.4 15.5 17.1 16.3 22.2 21.8 17.1 22.9
3.5 1.2 0.7 0.6 1.1 0.5 0.4 0.6 0.4 0.1 0.1 0.2 0.7 1.0 1.3 1.6 1.9 2.4 2.4 2.3 3.7 3.1 3.3 5.1 4.5 5.0 7.4 9.4 7.1 7.6 10.1 10.2 11.2 15.9 22.2 24.5 24.7 25.9 27.2 26.9 27.1 25.8 23.9
2.9 1.9 2.0 1.3 1.0 0.1 0.5 0.5 0.3 0.0 0.0 0.0 0.6 0.2 0.7 0.5 0.8 1.0 1.6 1.8 2.0 1.8 1.2 1.3 4.8 6.2 10.2 13.3 12.7 13.1 13.6 15.1 15.5 17.0 18.3 18.8 17.5 17.3 17.5 16.3 15.3 13.5 12.4

GFSMW_prec_kuchsnow_129.txt.gz
Snowfall_Accumulation
0.0 0.0 0.0 0.0 0.0 0.0 0.0 0.0 0.0 0.0 0.0 0.0 0.0 0.0 0.0 0.0 0.0 0.0 0.0 0.0 0.0 0.0 0.0 0.0 0.0 0.0 0.0 0.0 0.0 0.0 0.0 0.0 0.0 0.0 0.0 0.0 0.0 0.0 0.0 0.0 0.0 0.0 0.0
0.0 0.0 0.0 0.0 0.0 0.0 0.0 0.0 0.0 0.0 0.0 0.0 0.0 0.0 0.0 0.0 0.0 0.0 0.0 0.0 0.0 0.0 0.0 0.0 0.0 0.0 0.0 0.0 0.0 0.0 0.0 0.0 0.0 0.0 0.0 0.0 0.0 0.0 0.0 0.0 0.0 0.0 0.0
0.0 0.0 0.0 0.0 0.0 0.0 0.0 0.0 0.0 0.0 0.0 0.0 0.0 0.0 0.0 0.0 0.0 0.0 0.0 0.0 0.0 0.0 0.0 0.0 0.0 0.0 0.0 0.0 0.0 0.0 0.0 0.0 0.0 0.0 0.0 0.0 0.0 0.0 0.0 0.0 0.0 0.0 0.0
0.0 0.0 0.0 0.0 0.0 0.0 0.0 0.0 0.0 0.0 0.0 0.0 0.0 0.0 0.0 0.0 0.0 0.0 0.0 0.0 0.0 0.0 0.0 0.0 0.0 0.0 0.0 0.0 0.0 0.0 0.0 0.0 0.0 0.0 0.0 0.0 0.0 0.0 0.0 0.0 0.0 0.0 0.0
0.0 0.0 0.0 0.0 0.0 0.0 0.0 0.0 0.0 0.0 0.0 0.0 0.0 0.0 0.0 0.0 0.0 0.0 0.0 0.0 0.0 0.0 0.0 0.0 0.0 0.0 0.0 0.0 0.0 0.0 0.0 0.0 0.0 0.0 0.0 0.0 0.0 0.0 0.0 0.0 0.0 0.0 0.0
0.0 0.0 0.0 0.0 0.0 0.0 0.0 0.0 0.0 0.0 0.0 0.0 0.0 0.0 0.0 0.0 0.0 0.0 0.0 0.0 0.0 0.0 0.0 0.0 0.0 0.0 0.0 0.0 0.0 0.0 0.0 0.0 0.0 0.0 0.0 0.0 0.0 0.0 0.0 0.0 0.0 0.0 0.0
0.0 0.0 0.0 0.0 0.0 0.0 0.0 0.0 0.0 0.0 0.0 0.0 0.0 0.0 0.0 0.0 0.0 0.0 0.0 0.0 0.0 0.0 0.0 0.0 0.0 0.0 0.0 0.0 0.0 0.0 0.0 0.0 0.0 0.0 0.0 0.0 0.0 0.0 0.0 0.0 0.0 0.0 0.0
1.0 0.5 0.1 0.0 0.0 0.0 0.0 0.0 0.0 0.0 0.0 0.0 0.0 0.0 0.0 0.0 0.0 0.0 0.0 0.0 0.0 0.0 0.0 0.0 0.0 0.0 0.0 0.0 0.0 0.0 0.0 0.0 0.0 0.0 0.0 0.0 0.0 0.0 0.0 0.0 0.0 0.0 0.0
0.0 1.9 0.9 0.6 0.3 0.0 0.0 0.0 0.0 0.0 0.0 0.0 0.0 0.0 0.0 0.0 0.0 0.0 0.0 0.0 0.0 0.0 0.0 0.0 0.0 0.0 0.0 0.0 0.0 0.0 0.0 0.0 0.0 0.0 0.0 0.0 0.0 0.0 0.0 0.0 0.0 0.0 0.0
1.6 0.0 0.8 0.4 0.0 0.0 0.0 0.0 0.0 0.0 0.0 0.0 0.0 0.0 0.0 0.0 0.0 0.0 0.0 0.0 0.0 0.0 0.0 0.0 0.0 0.0 0.0 0.0 0.0 0.0 0.0 0.0 0.0 0.0 0.0 0.0 0.0 0.0 0.0 0.0 0.0 0.0 0.0
0.6 0.5 0.5 0.2 0.0 0.0 0.0 0.1 0.1 0.0 0.0 0.0 0.0 0.0 0.0 0.0 0.0 0.0 0.0 0.0 0.0 0.0 0.0 0.0 0.0 0.0 0.0 0.0 0.0 0.0 0.0 0.0 0.0 0.0 0.0 0.0 0.0 0.0 0.0 0.0 0.0 0.0 0.0
0.0 0.2 0.1 0.0 0.0 0.0 0.0 0.0 0.0 0.0 0.0 0.0 0.0 0.0 0.0 0.0 0.0 0.0 0.0 0.0 0.0 0.0 0.0 0.0 0.0 0.0 0.0 0.0 0.0 0.0 0.0 0.0 0.0 0.0 0.0 0.0 0.0 0.0 0.0 0.0 0.0 0.0 0.0
0.0 0.0 0.0 0.0 0.0 0.0 0.0 0.0 0.0 0.0 0.0 0.0 0.0 0.0 0.0 0.0 0.0 0.0 0.0 0.0 0.0 0.0 0.0 0.0 0.0 0.0 0.0 0.0 0.0 0.0 0.0 0.0 0.0 0.0 0.0 0.0 0.0 0.0 0.0 0.0 0.0 0.0 0.0
0.0 0.0 0.0 0.0 0.0 0.0 0.0 0.0 0.0 0.0 0.0 0.0 0.0 0.0 0.0 0.0 0.0 0.0 0.0 0.0 0.0 0.0 0.0 0.0 0.0 0.0 0.0 0.0 0.0 0.0 0.0 0.0 0.0 0.0 0.0 0.0 0.0 0.0 0.0 0.0 0.1 0.0 0.1
0.0 0.0 0.0 0.0 0.0 0.0 0.0 0.0 0.0 0.0 0.0 0.0 0.0 0.0 0.0 0.0 0.0 0.0 0.0 0.0 0.0 0.0 0.0 0.0 0.0 0.0 0.0 0.0 0.0 0.0 0.0 0.0 0.0 0.0 0.0 0.0 0.0 0.0 0.0 0.0 0.0 0.0 0.1
0.0 0.0 0.0 0.0 0.0 0.0 0.1 0.1 0.1 0.1 0.0 0.1 0.0 0.0 0.0 0.0 0.0 0.0 0.0 0.0 0.0 0.0 0.0 0.0 0.0 0.0 0.0 0.0 0.0 0.0 0.0 0.0 0.0 0.0 0.0 0.0 0.0 0.0 0.0 0.0 0.0 0.0 0.1
0.1 0.0 0.3 0.1 0.2 0.4 0.4 0.5 0.5 0.2 0.0 0.3 0.2 0.2 0.9 0.0 0.7 0.7 0.0 0.1 0.2 0.0 0.0 0.1 0.1 0.0 0.2 0.0 0.0 0.0 0.0 0.0 0.0 0.0 0.0 0.0 0.0 0.0 0.0 0.0 0.0 0.0 0.1
1.7 1.3 1.3 1.1 1.1 0.6 0.7 0.5 0.7 0.5 0.3 0.5 0.4 0.7 0.8 1.5 2.0 2.0 1.3 1.1 0.6 0.7 0.9 1.2 0.4 0.2 0.9 0.4 0.4 0.6 0.7 0.6 0.0 1.0 1.0 0.8 0.1 0.0 0.0 0.1 0.1 0.1 0.1
3.6 6.2 1.9 1.8 2.3 1.8 1.7 1.6 1.3 1.3 0.5 1.4 1.4 1.7 1.9 1.4 1.2 1.0 0.8 0.8 0.9 0.9 1.9 1.0 0.9 1.0 1.7 1.4 1.6 2.1 1.2 0.9 0.9 1.1 1.0 0.9 1.6 2.3 3.0 0.7 1.0 1.3 1.6
4.2 3.7 6.6 6.1 4.5 4.8 3.2 2.9 2.2 2.4 3.4 3.8 4.6 1.9 1.2 1.5 2.9 2.4 3.8 4.8 2.2 2.9 3.1 5.3 3.0 4.2 1.7 1.9 3.3 1.9 3.0 1.5 5.2 3.1 3.1 3.3 1.8 1.8 1.9 1.0 1.7 2.4 3.5
4.0 3.7 3.0 4.9 7.1 6.0 6.3 6.2 4.1 4.6 3.8 4.4 4.2 3.7 4.0 5.6 6.0 6.0 6.4 9.5 11.0 8.5 4.4 5.5 6.5 7.1 5.5 7.7 7.2 3.7 7.5 7.4 4.2 4.7 3.4 5.1 5.0 5.3 2.5 3.2 5.2 7.7 4.3
2.9 2.1 3.0 2.6 1.5 1.0 1.1 5.1 7.9 6.9 5.9 5.1 4.8 5.7 5.5 5.8 6.6 6.8 8.3 8.3 9.6 13.1 15.0 14.4 12.9 12.8 12.1 10.7 8.9 8.0 8.4 7.7 8.0 7.6 7.5 6.9 5.3 4.5 6.8 6.3 6.3 7.3 6.5
1.8 0.9 0.8 0.4 0.2 0.1 0.0 0.7 2.3 3.2 4.2 5.2 6.7 6.3 6.2 6.4 5.9 6.3 7.0 7.6 8.7 8.5 8.4 9.3 12.0 14.0 13.8 14.5 13.1 13.8 13.0 12.1 12.5 12.7 12.0 11.0 8.2 7.0 7.9 8.4 10.2 12.3 7.8
1.5 0.5 0.1 0.0 0.4 0.5 0.6 0.1 0.0 0.1 0.6 1.1 1.4 2.6 3.2 3.5 3.6 3.7 4.0 4.4 5.8 6.9 8.0 8.2 8.0 7.9 7.3 8.9 8.8 8.9 8.6 8.6 10.7 11.3 12.6 12.4 15.5 17.1 16.3 22.2 21.8 17.1 22.9
3.5 1.2 0.7 0.6 1.1 0.5 0.4 0.6 0.4 0.1 0.1 0.2 0.7 1.0 1.3 1.6 1.9 2.4 2.4 2.3 3.7 3.1 3.3 5.1 4.5 5.0 7.4 9.4 7.1 7.6 10.1 10.2 11.2 15.9 22.2 24.5 24.7 25.9 27.2 26.9 27.1 25.8 23.9
2.9 1.9 2.0 1.3 1.0 0.1 0.5 0.5 0.3 0.0 0.0 0.0 0.6 0.2 0.7 0.5 0.8 1.0 1.6 1.8 2.0 1.8 1.2 1.3 4.8 6.2 10.2 13.3 12.7 13.1 13.6 15.1 15.5 17.0 18.3 18.8 17.5 17.3 17.5 16.3 15.3 13.5 12.4

GFSMW_prec_kuchsnow_132.txt.gz
Snowfall_Accumulation
0.0 0.0 0.0 0.0 0.0 0.0 0.0 0.0 0.0 0.0 0.0 0.0 0.0 0.0 0.0 0.0 0.0 0.0 0.0 0.0 0.0 0.0 0.0 0.0 0.0 0.0 0.0 0.0 0.0 0.0 0.0 0.0 0.0 0.0 0.0 0.0 0.0 0.0 0.0 0.0 0.0 0.0 0.0
0.0 0.0 0.0 0.0 0.0 0.0 0.0 0.0 0.0 0.0 0.0 0.0 0.0 0.0 0.0 0.0 0.0 0.0 0.0 0.0 0.0 0.0 0.0 0.0 0.0 0.0 0.0 0.0 0.0 0.0 0.0 0.0 0.0 0.0 0.0 0.0 0.0 0.0 0.0 0.0 0.0 0.0 0.0
0.0 0.0 0.0 0.0 0.0 0.0 0.0 0.0 0.0 0.0 0.0 0.0 0.0 0.0 0.0 0.0 0.0 0.0 0.0 0.0 0.0 0.0 0.0 0.0 0.0 0.0 0.0 0.0 0.0 0.0 0.0 0.0 0.0 0.0 0.0 0.0 0.0 0.0 0.0 0.0 0.0 0.0 0.0
0.0 0.0 0.0 0.0 0.0 0.0 0.0 0.0 0.0 0.0 0.0 0.0 0.0 0.0 0.0 0.0 0.0 0.0 0.0 0.0 0.0 0.0 0.0 0.0 0.0 0.0 0.0 0.0 0.0 0.0 0.0 0.0 0.0 0.0 0.0 0.0 0.0 0.0 0.0 0.0 0.0 0.0 0.0
0.0 0.0 0.0 0.0 0.0 0.0 0.0 0.0 0.0 0.0 0.0 0.0 0.0 0.0 0.0 0.0 0.0 0.0 0.0 0.0 0.0 0.0 0.0 0.0 0.0 0.0 0.0 0.0 0.0 0.0 0.0 0.0 0.0 0.0 0.0 0.0 0.0 0.0 0.0 0.0 0.0 0.0 0.0
0.0 0.0 0.0 0.0 0.0 0.0 0.0 0.0 0.0 0.0 0.0 0.0 0.0 0.0 0.0 0.0 0.0 0.0 0.0 0.0 0.0 0.0 0.0 0.0 0.0 0.0 0.0 0.0 0.0 0.0 0.0 0.0 0.0 0.0 0.0 0.0 0.0 0.0 0.0 0.0 0.0 0.0 0.0
0.0 0.0 0.0 0.0 0.0 0.0 0.0 0.0 0.0 0.0 0.0 0.0 0.0 0.0 0.0 0.0 0.0 0.0 0.0 0.0 0.0 0.0 0.0 0.0 0.0 0.0 0.0 0.0 0.0 0.0 0.0 0.0 0.0 0.0 0.0 0.0 0.0 0.0 0.0 0.0 0.0 0.0 0.0
1.0 0.5 0.1 0.0 0.0 0.0 0.0 0.0 0.0 0.0 0.0 0.0 0.0 0.0 0.0 0.0 0.0 0.0 0.0 0.0 0.0 0.0 0.0 0.0 0.0 0.0 0.0 0.0 0.0 0.0 0.0 0.0 0.0 0.0 0.0 0.0 0.0 0.0 0.0 0.0 0.0 0.0 0.0
0.0 1.9 0.9 0.6 0.3 0.0 0.0 0.0 0.0 0.0 0.0 0.0 0.0 0.0 0.0 0.0 0.0 0.0 0.0 0.0 0.0 0.0 0.0 0.0 0.0 0.0 0.0 0.0 0.0 0.0 0.0 0.0 0.0 0.0 0.0 0.0 0.0 0.0 0.0 0.0 0.0 0.0 0.0
1.6 0.0 0.8 0.4 0.0 0.0 0.0 0.0 0.0 0.0 0.0 0.0 0.0 0.0 0.0 0.0 0.0 0.0 0.0 0.0 0.0 0.0 0.0 0.0 0.0 0.0 0.0 0.0 0.0 0.0 0.0 0.0 0.0 0.0 0.0 0.0 0.0 0.0 0.0 0.0 0.0 0.0 0.0
0.6 0.5 0.5 0.2 0.0 0.0 0.0 0.1 0.1 0.0 0.0 0.0 0.0 0.0 0.0 0.0 0.0 0.0 0.0 0.0 0.0 0.0 0.0 0.0 0.0 0.0 0.0 0.0 0.0 0.0 0.0 0.0 0.0 0.0 0.0 0.0 0.0 0.0 0.0 0.0 0.0 0.0 0.0
0.0 0.2 0.1 0.0 0.0 0.0 0.0 0.0 0.0 0.0 0.0 0.0 0.0 0.0 0.0 0.0 0.0 0.0 0.0 0.0 0.0 0.0 0.0 0.0 0.0 0.0 0.0 0.0 0.0 0.0 0.0 0.0 0.0 0.0 0.0 0.0 0.0 0.1 0.0 0.0 0.0 0.0 0.0
0.0 0.0 0.0 0.0 0.0 0.0 0.0 0.0 0.0 0.0 0.0 0.0 0.0 0.0 0.0 0.0 0.0 0.0 0.0 0.0 0.0 0.0 0.0 0.0 0.0 0.0 0.0 0.0 0.0 0.0 0.0 0.0 0.0 0.0 0.0 0.0 0.0 0.0 0.0 0.1 0.1 0.0 0.0
0.0 0.0 0.0 0.0 0.0 0.0 0.0 0.0 0.0 0.0 0.0 0.0 0.0 0.0 0.0 0.0 0.0 0.0 0.0 0.0 0.0 0.0 0.0 0.0 0.0 0.0 0.0 0.0 0.0 0.0 0.0 0.0 0.0 0.0 0.0 0.0 0.0 0.0 0.0 0.0 0.1 0.0 0.1
0.0 0.0 0.0 0.0 0.0 0.0 0.0 0.0 0.0 0.0 0.0 0.0 0.0 0.0 0.0 0.0 0.0 0.0 0.0 0.0 0.0 0.0 0.0 0.0 0.0 0.0 0.0 0.0 0.0 0.0 0.0 0.0 0.0 0.0 0.0 0.0 0.0 0.0 0.0 0.0 0.1 0.0 0.1
0.0 0.0 0.0 0.0 0.0 0.0 0.1 0.1 0.1 0.1 0.0 0.1 0.0 0.0 0.0 0.0 0.0 0.0 0.0 0.0 0.0 0.0 0.0 0.0 0.0 0.0 0.0 0.0 0.0 0.0 0.0 0.0 0.0 0.0 0.0 0.0 0.0 0.0 0.0 0.0 0.0 0.1 0.2
0.1 0.0 0.3 0.1 0.2 0.4 0.4 0.5 0.5 0.2 0.0 0.3 0.2 0.2 0.9 0.0 0.7 0.7 0.0 0.1 0.2 0.0 0.0 0.1 0.1 0.0 0.2 0.0 0.0 0.0 0.0 0.0 0.0 0.0 0.0 0.0 0.0 0.0 0.0 0.0 0.0 0.0 0.1
1.7 1.3 1.3 1.1 1.1 0.6 0.7 0.5 0.7 0.5 0.3 0.5 0.4 0.7 0.8 1.5 2.0 2.0 1.3 1.1 0.6 0.7 0.9 1.2 0.4 0.2 0.9 0.4 0.4 0.6 0.7 0.6 0.0 1.0 1.0 0.8 0.1 0.0 0.0 0.1 0.1 0.1 0.1
3.6 6.2 1.9 1.8 2.3 1.8 1.7 1.6 1.3 1.3 0.5 1.4 1.4 1.7 1.9 1.4 1.2 1.0 0.8 0.8 0.9 0.9 1.9 1.0 0.9 1.0 1.7 1.4 1.6 2.1 1.2 0.9 0.9 1.1 1.0 0.9 1.6 2.3 3.0 0.7 1.0 1.3 1.6
4.2 3.7 6.6 6.1 4.5 4.8 3.2 2.9 2.2 2.4 3.4 3.8 4.6 1.9 1.2 1.5 2.9 2.4 3.8 4.8 2.2 2.9 3.1 5.3 3.0 4.2 1.7 1.9 3.3 1.9 3.0 1.5 5.2 3.1 3.1 3.3 1.8 1.8 1.9 1.0 1.7 2.4 3.5
4.0 3.7 3.0 4.9 7.3 6.0 6.3 6.2 4.1 4.6 3.8 4.4 4.2 3.7 4.0 5.6 6.0 6.0 6.4 9.5 11.0 8.5 4.4 5.5 6.5 7.1 5.5 7.7 7.2 3.7 7.5 7.4 4.2 4.7 3.4 5.1 5.0 5.3 2.5 3.2 5.2 7.7 4.3
2.9 2.1 3.0 2.8 1.5 1.0 1.1 5.1 7.9 6.9 5.9 5.1 4.8 5.7 5.5 5.8 6.6 6.8 8.3 8.3 9.7 13.1 15.0 14.4 12.9 12.8 12.1 10.7 8.9 8.0 8.4 7.7 8.0 7.6 7.5 6.9 5.3 4.5 6.8 6.3 6.3 7.3 6.5
1.8 1.0 0.9 0.4 0.2 0.1 0.0 0.7 2.3 3.2 4.2 5.2 6.7 6.3 6.2 6.4 5.9 6.3 7.0 7.6 8.7 8.5 8.4 9.3 12.0 14.0 13.8 14.5 13.1 13.8 13.0 12.1 12.5 12.7 12.0 11.0 8.2 7.0 7.9 8.4 10.2 12.3 7.8
1.5 0.5 0.1 0.0 0.4 0.5 0.6 0.1 0.0 0.1 0.6 1.1 1.4 2.6 3.2 3.5 3.6 3.7 4.0 4.4 5.8 6.9 8.0 8.2 8.0 7.9 7.3 8.9 8.8 8.9 8.6 8.6 10.7 11.3 12.6 12.4 15.5 17.1 16.3 22.2 21.8 17.1 22.9
3.5 1.2 0.7 0.6 1.1 0.5 0.4 0.6 0.4 0.1 0.1 0.2 0.7 1.0 1.3 1.6 1.9 2.4 2.4 2.3 3.7 3.1 3.3 5.1 4.5 5.0 7.4 9.4 7.1 7.6 10.1 10.2 11.2 15.9 22.2 24.5 24.7 25.9 27.2 26.9 27.1 25.8 23.9
2.9 1.9 2.0 1.3 1.0 0.1 0.5 0.5 0.3 0.0 0.0 0.0 0.6 0.2 0.7 0.5 0.8 1.0 1.6 1.8 2.0 1.8 1.2 1.3 4.8 6.2 10.2 13.3 12.7 13.1 13.6 15.1 15.5 17.0 18.3 18.8 17.5 17.3 17.5 16.3 15.3 13.5 12.4

GFSMW_prec_kuchsnow_135.txt.gz
Snowfall_Accumulation
0.0 0.0 0.0 0.0 0.0 0.0 0.0 0.0 0.0 0.0 0.0 0.0 0.0 0.0 0.0 0.0 0.0 0.0 0.0 0.0 0.0 0.0 0.0 0.0 0.0 0.0 0.0 0.0 0.0 0.0 0.0 0.0 0.0 0.0 0.0 0.0 0.0 0.0 0.0 0.0 0.0 0.0 0.0
0.0 0.0 0.0 0.0 0.0 0.0 0.0 0.0 0.0 0.0 0.0 0.0 0.0 0.0 0.0 0.0 0.0 0.0 0.0 0.0 0.0 0.0 0.0 0.0 0.0 0.0 0.0 0.0 0.0 0.0 0.0 0.0 0.0 0.0 0.0 0.0 0.0 0.0 0.0 0.0 0.0 0.0 0.0
0.0 0.0 0.0 0.0 0.0 0.0 0.0 0.0 0.0 0.0 0.0 0.0 0.0 0.0 0.0 0.0 0.0 0.0 0.0 0.0 0.0 0.0 0.0 0.0 0.0 0.0 0.0 0.0 0.0 0.0 0.0 0.0 0.0 0.0 0.0 0.0 0.0 0.0 0.0 0.0 0.0 0.0 0.0
0.0 0.0 0.0 0.0 0.0 0.0 0.0 0.0 0.0 0.0 0.0 0.0 0.0 0.0 0.0 0.0 0.0 0.0 0.0 0.0 0.0 0.0 0.0 0.0 0.0 0.0 0.0 0.0 0.0 0.0 0.0 0.0 0.0 0.0 0.0 0.0 0.0 0.0 0.0 0.0 0.0 0.0 0.0
0.0 0.0 0.0 0.0 0.0 0.0 0.0 0.0 0.0 0.0 0.0 0.0 0.0 0.0 0.0 0.0 0.0 0.0 0.0 0.0 0.0 0.0 0.0 0.0 0.0 0.0 0.0 0.0 0.0 0.0 0.0 0.0 0.0 0.0 0.0 0.0 0.0 0.0 0.0 0.0 0.0 0.0 0.0
0.0 0.0 0.0 0.0 0.0 0.0 0.0 0.0 0.0 0.0 0.0 0.0 0.0 0.0 0.0 0.0 0.0 0.0 0.0 0.0 0.0 0.0 0.0 0.0 0.0 0.0 0.0 0.0 0.0 0.0 0.0 0.0 0.0 0.0 0.0 0.0 0.0 0.0 0.0 0.0 0.0 0.0 0.0
0.0 0.0 0.0 0.0 0.0 0.0 0.0 0.0 0.0 0.0 0.0 0.0 0.0 0.0 0.0 0.0 0.0 0.0 0.0 0.0 0.0 0.0 0.0 0.0 0.0 0.0 0.0 0.0 0.0 0.0 0.0 0.0 0.0 0.0 0.0 0.0 0.0 0.0 0.0 0.0 0.0 0.0 0.0
1.0 0.5 0.1 0.0 0.0 0.0 0.0 0.0 0.0 0.0 0.0 0.0 0.0 0.0 0.0 0.0 0.0 0.0 0.0 0.0 0.0 0.0 0.0 0.0 0.0 0.0 0.0 0.0 0.0 0.0 0.0 0.0 0.0 0.0 0.0 0.0 0.0 0.0 0.0 0.0 0.0 0.0 0.0
0.0 1.9 0.9 0.6 0.3 0.0 0.0 0.0 0.0 0.0 0.0 0.0 0.0 0.0 0.0 0.0 0.0 0.0 0.0 0.0 0.0 0.0 0.0 0.0 0.0 0.0 0.0 0.0 0.0 0.0 0.0 0.0 0.0 0.0 0.0 0.0 0.0 0.0 0.0 0.0 0.0 0.0 0.0
1.6 0.0 0.8 0.4 0.0 0.0 0.0 0.0 0.0 0.0 0.0 0.0 0.0 0.0 0.0 0.0 0.0 0.0 0.0 0.0 0.0 0.0 0.0 0.0 0.0 0.0 0.0 0.0 0.0 0.0 0.0 0.0 0.0 0.0 0.0 0.0 0.0 0.0 0.0 0.0 0.0 0.0 0.0
0.6 0.5 0.5 0.2 0.0 0.0 0.0 0.1 0.1 0.0 0.0 0.0 0.0 0.0 0.0 0.0 0.0 0.0 0.0 0.0 0.0 0.0 0.0 0.0 0.0 0.0 0.0 0.0 0.0 0.0 0.0 0.0 0.0 0.0 0.0 0.0 0.0 0.0 0.0 0.0 0.0 0.0 0.0
0.0 0.2 0.1 0.0 0.0 0.0 0.0 0.0 0.0 0.0 0.0 0.0 0.0 0.0 0.0 0.0 0.0 0.0 0.0 0.0 0.0 0.0 0.0 0.0 0.0 0.0 0.0 0.0 0.0 0.0 0.0 0.0 0.0 0.0 0.0 0.0 0.0 0.1 0.0 0.0 0.1 0.1 0.0
0.0 0.0 0.0 0.0 0.0 0.0 0.0 0.0 0.0 0.0 0.0 0.0 0.0 0.0 0.0 0.0 0.0 0.0 0.0 0.0 0.0 0.0 0.0 0.0 0.0 0.0 0.0 0.0 0.0 0.0 0.0 0.0 0.0 0.0 0.0 0.0 0.0 0.0 0.0 0.1 0.1 0.0 0.1
0.0 0.0 0.0 0.0 0.0 0.0 0.0 0.0 0.0 0.0 0.0 0.0 0.0 0.0 0.0 0.0 0.0 0.0 0.0 0.0 0.0 0.0 0.0 0.0 0.0 0.0 0.0 0.0 0.0 0.0 0.0 0.0 0.0 0.0 0.0 0.0 0.0 0.0 0.0 0.1 0.1 0.0 0.1
0.0 0.0 0.0 0.0 0.0 0.0 0.0 0.0 0.0 0.0 0.0 0.0 0.0 0.0 0.0 0.0 0.0 0.0 0.0 0.0 0.0 0.0 0.0 0.0 0.0 0.0 0.0 0.0 0.0 0.0 0.0 0.0 0.0 0.0 0.0 0.0 0.0 0.0 0.0 0.1 0.2 0.1 0.1
0.0 0.0 0.0 0.0 0.0 0.0 0.1 0.1 0.1 0.1 0.0 0.1 0.0 0.0 0.0 0.0 0.0 0.0 0.0 0.0 0.0 0.0 0.0 0.0 0.0 0.0 0.0 0.0 0.0 0.0 0.0 0.0 0.0 0.0 0.0 0.0 0.0 0.0 0.0 0.0 0.0 0.2 0.4
0.1 0.0 0.3 0.1 0.2 0.4 0.4 0.5 0.5 0.2 0.0 0.3 0.2 0.2 0.9 0.0 0.7 0.7 0.0 0.1 0.2 0.0 0.0 0.1 0.1 0.0 0.2 0.0 0.0 0.0 0.0 0.0 0.0 0.0 0.0 0.0 0.0 0.0 0.0 0.0 0.0 0.0 0.1
1.7 1.3 1.3 1.1 1.1 0.6 0.7 0.5 0.7 0.5 0.3 0.5 0.4 0.7 0.8 1.5 2.0 2.0 1.3 1.1 0.6 0.7 0.9 1.2 0.4 0.2 0.9 0.4 0.4 0.6 0.7 0.6 0.0 1.0 1.0 0.8 0.1 0.0 0.0 0.1 0.1 0.1 0.1
3.6 6.2 1.9 1.8 2.3 1.8 1.7 1.6 1.3 1.3 0.5 1.4 1.4 1.7 1.9 1.4 1.2 1.0 0.8 0.8 0.9 0.9 1.9 1.0 0.9 1.0 1.7 1.4 1.6 2.1 1.2 0.9 0.9 1.1 1.0 0.9 1.6 2.3 3.0 0.7 1.0 1.3 1.6
4.2 3.7 6.6 6.1 4.5 4.8 3.2 2.9 2.2 2.4 3.4 3.8 4.6 1.9 1.2 1.5 2.9 2.4 3.8 4.8 2.2 2.9 3.1 5.3 3.0 4.2 1.7 1.9 3.3 1.9 3.0 1.5 5.2 3.1 3.1 3.3 1.8 1.8 1.9 1.0 1.7 2.4 3.5
4.0 3.7 3.0 4.9 7.3 6.0 6.3 6.2 4.1 4.6 3.8 4.4 4.2 3.7 4.0 5.6 6.0 6.0 6.4 9.5 11.0 8.5 4.4 5.5 6.5 7.1 5.5 7.7 7.2 3.7 7.5 7.4 4.2 4.7 3.4 5.1 5.0 5.3 2.5 3.2 5.2 7.7 4.3
2.9 2.1 3.0 2.8 1.5 1.0 1.1 5.1 7.9 6.9 5.9 5.1 4.8 5.7 5.5 5.8 6.6 6.8 8.3 8.3 9.7 13.1 15.0 14.4 12.9 12.8 12.1 10.7 8.9 8.0 8.4 7.7 8.0 7.6 7.5 6.9 5.3 4.5 6.8 6.3 6.3 7.3 6.5
1.8 1.0 0.9 0.4 0.3 0.2 0.0 0.7 2.3 3.2 4.2 5.2 6.7 6.3 6.2 6.4 5.9 6.3 7.0 7.6 8.7 8.5 8.4 9.3 12.0 14.0 13.8 14.5 13.1 13.8 13.0 12.1 12.5 12.7 12.0 11.0 8.2 7.0 7.9 8.4 10.2 12.3 7.8
1.5 0.5 0.1 0.1 0.4 0.5 0.6 0.1 0.0 0.1 0.6 1.1 1.4 2.6 3.2 3.5 3.6 3.7 4.0 4.4 5.8 6.9 8.0 8.2 8.0 7.9 7.3 8.9 8.8 8.9 8.6 8.6 10.7 11.3 12.6 12.4 15.5 17.1 16.3 22.2 21.8 17.1 22.9
3.5 1.2 0.7 0.6 1.1 0.5 0.4 0.6 0.4 0.1 0.1 0.2 0.7 1.0 1.3 1.6 1.9 2.4 2.4 2.3 3.7 3.1 3.3 5.1 4.5 5.0 7.4 9.4 7.1 7.6 10.1 10.2 11.2 15.9 22.2 24.5 24.7 25.9 27.2 26.9 27.1 25.8 23.9
2.9 1.9 2.0 1.3 1.0 0.1 0.5 0.5 0.3 0.0 0.0 0.0 0.6 0.2 0.7 0.5 0.8 1.0 1.6 1.8 2.0 1.8 1.2 1.3 4.8 6.2 10.2 13.3 12.7 13.1 13.6 15.1 15.5 17.0 18.3 18.8 17.5 17.3 17.5 16.3 15.3 13.5 12.4

GFSMW_prec_kuchsnow_141.txt.gz
Snowfall_Accumulation
0.0 0.0 0.0 0.0 0.0 0.0 0.0 0.0 0.0 0.0 0.0 0.0 0.0 0.0 0.0 0.0 0.0 0.0 0.0 0.0 0.0 0.0 0.0 0.0 0.0 0.0 0.0 0.0 0.0 0.0 0.0 0.0 0.0 0.0 0.0 0.0 0.0 0.0 0.0 0.0 0.0 0.0 0.0
0.0 0.0 0.0 0.0 0.0 0.0 0.0 0.0 0.0 0.0 0.0 0.0 0.0 0.0 0.0 0.0 0.0 0.0 0.0 0.0 0.0 0.0 0.0 0.0 0.0 0.0 0.0 0.0 0.0 0.0 0.0 0.0 0.0 0.0 0.0 0.0 0.0 0.0 0.0 0.0 0.0 0.0 0.0
0.0 0.0 0.0 0.0 0.0 0.0 0.0 0.0 0.0 0.0 0.0 0.0 0.0 0.0 0.0 0.0 0.0 0.0 0.0 0.0 0.0 0.0 0.0 0.0 0.0 0.0 0.0 0.0 0.0 0.0 0.0 0.0 0.0 0.0 0.0 0.0 0.0 0.0 0.0 0.0 0.0 0.0 0.0
0.0 0.0 0.0 0.0 0.0 0.0 0.0 0.0 0.0 0.0 0.0 0.0 0.0 0.0 0.0 0.0 0.0 0.0 0.0 0.0 0.0 0.0 0.0 0.0 0.0 0.0 0.0 0.0 0.0 0.0 0.0 0.0 0.0 0.0 0.0 0.0 0.0 0.0 0.0 0.0 0.0 0.0 0.0
0.0 0.0 0.0 0.0 0.0 0.0 0.0 0.0 0.0 0.0 0.0 0.0 0.0 0.0 0.0 0.0 0.0 0.0 0.0 0.0 0.0 0.0 0.0 0.0 0.0 0.0 0.0 0.0 0.0 0.0 0.0 0.0 0.0 0.0 0.0 0.0 0.0 0.0 0.0 0.0 0.0 0.0 0.0
0.0 0.0 0.0 0.0 0.0 0.0 0.0 0.0 0.0 0.0 0.0 0.0 0.0 0.0 0.0 0.0 0.0 0.0 0.0 0.0 0.0 0.0 0.0 0.0 0.0 0.0 0.0 0.0 0.0 0.0 0.0 0.0 0.0 0.0 0.0 0.0 0.0 0.0 0.0 0.0 0.0 0.0 0.0
0.0 0.0 0.0 0.0 0.0 0.0 0.0 0.0 0.0 0.0 0.0 0.0 0.0 0.0 0.0 0.0 0.0 0.0 0.0 0.0 0.0 0.0 0.0 0.0 0.0 0.0 0.0 0.0 0.0 0.0 0.0 0.0 0.0 0.0 0.0 0.0 0.0 0.0 0.0 0.0 0.0 0.0 0.0
1.0 0.5 0.1 0.0 0.0 0.0 0.0 0.0 0.0 0.0 0.0 0.0 0.0 0.0 0.0 0.0 0.0 0.0 0.0 0.0 0.0 0.0 0.0 0.0 0.0 0.0 0.0 0.0 0.0 0.0 0.0 0.0 0.0 0.0 0.0 0.0 0.0 0.0 0.0 0.0 0.0 0.0 0.0
0.0 1.9 0.9 0.6 0.3 0.0 0.0 0.0 0.0 0.0 0.0 0.0 0.0 0.0 0.0 0.0 0.0 0.0 0.0 0.0 0.0 0.0 0.0 0.0 0.0 0.0 0.0 0.0 0.0 0.0 0.0 0.0 0.0 0.0 0.0 0.0 0.0 0.0 0.0 0.0 0.0 0.0 0.0
1.6 0.0 0.8 0.4 0.0 0.0 0.0 0.0 0.0 0.0 0.0 0.0 0.0 0.0 0.0 0.0 0.0 0.0 0.0 0.0 0.0 0.0 0.0 0.0 0.0 0.0 0.0 0.0 0.0 0.0 0.0 0.0 0.1 0.1 0.1 0.0 0.0 0.1 0.1 0.1 0.1 0.1 0.1
0.6 0.5 0.5 0.2 0.0 0.0 0.0 0.1 0.1 0.0 0.0 0.0 0.0 0.0 0.0 0.0 0.0 0.0 0.0 0.0 0.0 0.0 0.0 0.0 0.0 0.0 0.0 0.0 0.0 0.0 0.0 0.0 0.4 0.1 0.2 0.1 0.4 0.5 0.3 0.2 0.1 0.1 0.1
0.0 0.2 0.1 0.0 0.0 0.0 0.0 0.0 0.0 0.0 0.0 0.0 0.0 0.0 0.0 0.0 0.0 0.0 0.0 0.0 0.0 0.0 0.0 0.0 0.0 0.0 0.0 0.0 0.0 0.0 0.0 0.0 0.0 0.0 0.0 0.0 0.0 0.1 0.4 0.4 0.3 0.3 0.1
0.0 0.0 0.0 0.0 0.0 0.0 0.0 0.0 0.0 0.0 0.0 0.0 0.0 0.0 0.0 0.0 0.0 0.0 0.0 0.0 0.0 0.0 0.0 0.0 0.0 0.0 0.0 0.0 0.0 0.0 0.0 0.0 0.0 0.0 0.0 0.0 0.0 0.0 0.0 0.1 0.1 0.0 0.1
0.0 0.0 0.0 0.0 0.0 0.0 0.0 0.0 0.0 0.0 0.0 0.0 0.0 0.0 0.0 0.0 0.0 0.0 0.0 0.0 0.0 0.0 0.0 0.0 0.0 0.0 0.0 0.0 0.0 0.0 0.0 0.0 0.0 0.0 0.0 0.0 0.0 0.0 0.0 0.1 0.1 0.0 0.1
0.0 0.0 0.0 0.0 0.0 0.0 0.0 0.0 0.0 0.0 0.0 0.0 0.0 0.0 0.0 0.0 0.0 0.0 0.0 0.0 0.0 0.0 0.0 0.0 0.0 0.0 0.0 0.0 0.0 0.0 0.0 0.0 0.0 0.0 0.0 0.0 0.0 0.0 0.0 0.1 0.3 0.1 0.1
0.0 0.0 0.0 0.0 0.0 0.0 0.1 0.1 0.1 0.1 0.0 0.1 0.0 0.0 0.0 0.0 0.0 0.0 0.0 0.0 0.0 0.0 0.0 0.0 0.0 0.0 0.0 0.0 0.0 0.0 0.0 0.0 0.0 0.0 0.0 0.0 0.0 0.0 0.0 0.0 0.1 0.3 0.5
0.1 0.0 0.3 0.1 0.2 0.4 0.4 0.5 0.5 0.2 0.0 0.3 0.2 0.2 0.9 0.0 0.7 0.7 0.0 0.1 0.2 0.0 0.0 0.1 0.1 0.0 0.2 0.0 0.0 0.0 0.0 0.0 0.0 0.0 0.0 0.0 0.0 0.0 0.0 0.0 0.0 0.0 0.1
1.7 1.3 1.3 1.1 1.1 0.6 0.7 0.5 1.1 0.6 0.3 0.5 0.4 0.7 0.8 1.5 2.0 2.0 1.3 1.1 0.6 0.7 0.9 1.2 0.4 0.2 0.9 0.4 0.4 0.6 0.7 0.6 0.0 1.0 1.0 0.8 0.1 0.0 0.0 0.1 0.1 0.1 0.1
3.6 6.2 1.9 1.8 2.3 1.8 1.7 1.9 1.3 1.3 0.5 1.4 1.4 1.7 1.9 1.4 1.2 1.0 0.8 0.8 0.9 0.9 1.9 1.0 0.9 1.0 1.7 1.4 1.6 2.1 1.2 0.9 0.9 1.1 1.0 0.9 1.6 2.3 3.0 0.7 1.0 1.3 1.6
4.2 3.7 6.6 6.1 4.5 4.8 3.2 2.9 2.2 2.5 3.4 3.8 4.6 1.9 1.2 1.5 2.9 2.4 3.8 4.8 2.2 2.9 3.1 5.3 3.0 4.2 1.7 1.9 3.3 1.9 3.0 1.5 5.2 3.1 3.1 3.3 1.8 1.8 1.9 1.0 1.7 2.4 3.5
4.0 3.7 3.0 4.9 7.3 6.0 6.3 6.2 4.2 4.6 3.8 4.4 4.2 3.7 4.0 5.6 6.0 6.0 6.4 9.5 11.0 8.5 4.4 5.5 6.5 7.1 5.5 7.7 7.2 3.7 7.5 7.4 4.2 4.7 3.4 5.1 5.0 5.3 2.5 3.2 5.2 7.7 4.3
2.9 2.1 3.0 2.8 1.5 1.0 1.1 5.1 7.9 6.9 5.9 5.1 4.8 5.7 5.5 5.8 6.6 6.8 8.4 8.4 9.7 13.1 15.0 14.4 12.9 12.8 12.1 10.7 8.9 8.0 8.4 7.7 8.0 7.6 7.5 6.9 5.3 4.5 6.8 6.3 6.3 7.3 6.5
1.8 1.0 0.9 0.4 0.3 0.2 0.0 0.7 2.3 3.2 4.2 5.2 6.7 6.3 6.2 6.4 5.9 6.3 7.1 7.7 8.7 8.5 8.4 9.3 12.0 14.0 13.8 14.5 13.1 13.8 13.0 12.1 12.5 12.7 12.0 11.0 8.2 7.0 7.9 8.4 10.2 12.3 7.8
1.5 0.5 0.1 0.1 0.4 0.5 0.6 0.1 0.1 0.1 0.6 1.1 1.4 2.6 3.2 3.5 3.6 3.7 4.0 4.4 5.8 6.9 8.0 8.2 8.0 7.9 7.3 8.9 8.8 8.9 8.6 8.6 10.7 11.3 12.6 12.4 15.5 17.1 16.3 22.2 21.8 17.1 22.9
3.5 1.2 0.7 0.6 1.1 0.6 0.4 0.7 0.5 0.1 0.1 0.2 0.7 1.0 1.3 1.6 1.9 2.4 2.4 2.3 3.7 3.1 3.3 5.1 4.5 5.0 7.4 9.4 7.1 7.6 10.1 10.2 11.2 15.9 22.2 24.5 24.7 25.9 27.2 26.9 27.1 25.8 23.9
2.9 1.9 2.0 1.3 1.0 0.1 0.7 0.6 0.3 0.0 0.0 0.0 0.6 0.2 0.7 0.5 0.8 1.0 1.6 1.8 2.0 1.8 1.2 1.3 4.8 6.2 10.2 13.3 12.7 13.1 13.6 15.1 15.5 17.0 18.3 18.8 17.5 17.3 17.5 16.3 15.3 13.5 12.4